GIA980 WIII-OEJN

Flight info

Callsign GIA980
Flight time 9h 20m
Altitude 34000
Route RIMTI M766 GODAV/N0486F360 M766 KAT P570 TVM UL425 MAMIG/N0481F380 UL425 ASPUX L425 GOBRO DCT AMBIT L425 BOSUT
Aircraft B77W/H-SDE1E2E3FGHIJ2J3J4J5M1RWXY/LB1D1

Departure

Time 2026-05-06 23:44
Airport Soekarno-Hatta International Airport (WIII)

Arrival

Time 2026-05-07 09:04
Airport King Abdulaziz International Airport (OEJN)
Time Latitude Longitude Altitude Speed Heading
2026-05-06 23:11 -6.12408 106.64875 43 ft 0 kts 96°
2026-05-06 23:27 -6.12407 106.64868 41 ft 3 kts 95°
2026-05-06 23:27 -6.12405 106.64841 39 ft 3 kts 95°
2026-05-06 23:27 -6.12404 106.64818 38 ft 3 kts 70°
2026-05-06 23:27 -6.12415 106.64806 38 ft 3 kts 349°
2026-05-06 23:28 -6.12440 106.64815 38 ft 3 kts 334°
2026-05-06 23:28 -6.12460 106.64824 38 ft 0 kts 339°
2026-05-06 23:30 -6.12453 106.64821 38 ft 3 kts 339°
2026-05-06 23:30 -6.12412 106.64806 38 ft 9 kts 339°
2026-05-06 23:31 -6.12335 106.64776 43 ft 15 kts 339°
2026-05-06 23:31 -6.12221 106.64754 43 ft 19 kts 347°
2026-05-06 23:31 -6.12094 106.64688 43 ft 22 kts 296°
2026-05-06 23:31 -6.12131 106.64535 43 ft 25 kts 247°
2026-05-06 23:32 -6.12205 106.64451 43 ft 16 kts 179°
2026-05-06 23:32 -6.12317 106.64491 43 ft 20 kts 157°
2026-05-06 23:32 -6.12455 106.64546 43 ft 24 kts 159°
2026-05-06 23:32 -6.12625 106.64613 43 ft 28 kts 159°
2026-05-06 23:33 -6.12804 106.64684 49 ft 26 kts 158°
2026-05-06 23:33 -6.12968 106.64750 53 ft 28 kts 158°
2026-05-06 23:33 -6.13147 106.64823 43 ft 30 kts 159°
2026-05-06 23:33 -6.13309 106.64886 43 ft 26 kts 158°
2026-05-06 23:34 -6.13487 106.64957 43 ft 21 kts 159°
2026-05-06 23:34 -6.13626 106.65012 43 ft 23 kts 159°
2026-05-06 23:34 -6.13717 106.64978 43 ft 17 kts 248°
2026-05-06 23:34 -6.13768 106.64851 43 ft 22 kts 248°
2026-05-06 23:35 -6.13829 106.64697 43 ft 26 kts 248°
2026-05-06 23:35 -6.13902 106.64518 43 ft 29 kts 247°
2026-05-06 23:35 -6.13963 106.64371 43 ft 23 kts 247°
2026-05-06 23:35 -6.14013 106.64280 43 ft 14 kts 214°
2026-05-06 23:36 -6.14103 106.64285 44 ft 8 kts 158°
2026-05-06 23:36 -6.14109 106.64288 44 ft 0 kts 156°
2026-05-06 23:42 -6.14110 106.64289 44 ft 1 kts 156°
2026-05-06 23:42 -6.14147 106.64304 45 ft 12 kts 158°
2026-05-06 23:42 -6.14223 106.64363 46 ft 12 kts 138°
2026-05-06 23:43 -6.14229 106.64429 45 ft 14 kts 70°
2026-05-06 23:43 -6.14213 106.64469 45 ft 0 kts 67°
2026-05-06 23:43 -6.14160 106.64596 43 ft 53 kts 68°
2026-05-06 23:44 -6.13939 106.65153 46 ft 119 kts 69°
2026-05-06 23:44 -6.13553 106.66116 45 ft 177 kts 69°
2026-05-06 23:44 -6.13096 106.67297 264 ft 196 kts 69°
2026-05-06 23:44 -6.12635 106.68482 811 ft 196 kts 70°
2026-05-06 23:45 -6.12163 106.69747 1453 ft 194 kts 70°
2026-05-06 23:45 -6.11835 106.70572 1915 ft 191 kts 66°
2026-05-06 23:45 -6.11226 106.71737 2494 ft 191 kts 66°
2026-05-06 23:45 -6.11063 106.73074 2606 ft 208 kts 107°
2026-05-06 23:46 -6.11803 106.74369 2903 ft 220 kts 126°
2026-05-06 23:46 -6.12899 106.75448 3356 ft 227 kts 143°
2026-05-06 23:46 -6.14381 106.76101 3846 ft 234 kts 162°
2026-05-06 23:46 -6.15937 106.76489 4347 ft 239 kts 171°
2026-05-06 23:47 -6.17587 106.76228 4824 ft 250 kts 208°
2026-05-06 23:47 -6.18934 106.75137 5345 ft 253 kts 227°
2026-05-06 23:47 -6.19782 106.73636 5809 ft 257 kts 259°
2026-05-06 23:47 -6.20012 106.71856 6336 ft 258 kts 264°
2026-05-06 23:48 -6.20215 106.70057 6850 ft 261 kts 264°
2026-05-06 23:48 -6.20452 106.68238 7314 ft 271 kts 260°
2026-05-06 23:48 -6.20836 106.66346 7696 ft 281 kts 257°
2026-05-06 23:48 -6.21256 106.64428 8235 ft 287 kts 257°
2026-05-06 23:49 -6.21681 106.62461 8863 ft 289 kts 258°
2026-05-06 23:49 -6.22101 106.60473 9522 ft 291 kts 258°
2026-05-06 23:49 -6.22506 106.58522 10084 ft 294 kts 258°
2026-05-06 23:49 -6.22930 106.56470 10683 ft 298 kts 258°
2026-05-06 23:50 -6.23315 106.54430 11267 ft 300 kts 265°
2026-05-06 23:50 -6.21871 106.50615 11984 ft 321 kts 313°
2026-05-06 23:50 -6.20308 106.48906 12168 ft 344 kts 314°
2026-05-06 23:51 -6.18650 106.47108 12346 ft 368 kts 314°
2026-05-06 23:51 -6.16863 106.45164 12598 ft 388 kts 314°
2026-05-06 23:51 -6.15030 106.43155 13143 ft 399 kts 314°
2026-05-06 23:51 -6.13160 106.41092 13780 ft 405 kts 313°
2026-05-06 23:52 -6.11261 106.38991 14461 ft 409 kts 313°
2026-05-06 23:52 -6.09342 106.36867 15178 ft 411 kts 313°
2026-05-06 23:52 -6.07420 106.34741 15866 ft 415 kts 313°
2026-05-06 23:52 -6.05508 106.32632 16499 ft 419 kts 313°
2026-05-06 23:53 -6.03507 106.30425 17167 ft 423 kts 313°
2026-05-06 23:53 -6.01516 106.28229 17841 ft 427 kts 313°
2026-05-06 23:53 -5.99511 106.26017 18456 ft 430 kts 313°
2026-05-06 23:53 -5.97485 106.23782 19017 ft 433 kts 313°
2026-05-06 23:54 -5.95476 106.21565 19576 ft 436 kts 313°
2026-05-06 23:54 -5.93422 106.19298 20128 ft 440 kts 313°
2026-05-06 23:54 -5.91347 106.17009 20689 ft 443 kts 313°
2026-05-06 23:54 -5.89267 106.14714 21212 ft 447 kts 313°
2026-05-06 23:55 -5.87167 106.12397 21761 ft 450 kts 313°
2026-05-06 23:55 -5.85053 106.10066 22276 ft 454 kts 313°
2026-05-06 23:55 -5.82913 106.07707 22754 ft 458 kts 313°
2026-05-06 23:55 -5.80759 106.05330 23210 ft 463 kts 313°
2026-05-06 23:56 -5.78581 106.02927 23673 ft 466 kts 313°
2026-05-06 23:56 -5.76394 106.00511 24095 ft 468 kts 313°
2026-05-06 23:56 -5.74199 105.98087 24550 ft 470 kts 313°
2026-05-06 23:56 -5.72005 105.95664 25033 ft 470 kts 313°
2026-05-06 23:57 -5.69791 105.93219 25453 ft 473 kts 313°
2026-05-06 23:57 -5.67570 105.90768 25830 ft 476 kts 313°
2026-05-06 23:57 -5.65330 105.88296 26205 ft 480 kts 313°
2026-05-06 23:57 -5.63073 105.85805 26594 ft 482 kts 313°
2026-05-06 23:58 -5.60838 105.83339 26974 ft 485 kts 313°
2026-05-06 23:58 -5.58567 105.80833 27363 ft 487 kts 313°
2026-05-06 23:58 -5.56283 105.78314 27759 ft 489 kts 313°
2026-05-06 23:58 -5.53986 105.75780 28132 ft 491 kts 313°
2026-05-06 23:59 -5.51674 105.73229 28506 ft 494 kts 313°
2026-05-06 23:59 -5.49359 105.70675 28839 ft 497 kts 313°
2026-05-06 23:59 -5.47018 105.68093 29167 ft 500 kts 313°
2026-05-06 23:59 -5.44675 105.65510 29498 ft 502 kts 313°
2026-05-07 00:00 -5.42412 105.62824 29836 ft 505 kts 305°
2026-05-07 00:00 -5.40808 105.59693 30067 ft 508 kts 291°
2026-05-07 00:00 -5.39632 105.56352 30305 ft 510 kts 289°
2026-05-07 00:00 -5.38479 105.52959 30587 ft 511 kts 289°
2026-05-07 00:01 -5.37315 105.49613 30945 ft 509 kts 290°
2026-05-07 00:01 -5.36108 105.46264 31397 ft 506 kts 290°
2026-05-07 00:01 -5.34882 105.42958 31835 ft 503 kts 291°
2026-05-07 00:01 -5.33668 105.39734 32282 ft 500 kts 291°
2026-05-07 00:02 -5.32456 105.36530 32691 ft 498 kts 291°
2026-05-07 00:02 -5.31225 105.33278 33088 ft 497 kts 291°
2026-05-07 00:02 -5.30000 105.30030 33494 ft 494 kts 291°
2026-05-07 00:02 -5.28814 105.26879 33876 ft 493 kts 291°
2026-05-07 00:03 -5.26367 105.20381 33859 ft 495 kts 291°
2026-05-07 00:03 -5.23587 105.14093 33858 ft 492 kts 296°
2026-05-07 00:04 -5.20554 105.07939 33859 ft 491 kts 297°
2026-05-07 00:04 -5.17569 105.01854 33868 ft 491 kts 296°
2026-05-07 00:05 -5.14584 104.95676 33887 ft 491 kts 296°
2026-05-07 00:05 -5.11612 104.89488 33900 ft 493 kts 296°
2026-05-07 00:06 -5.08625 104.83273 33907 ft 495 kts 296°
2026-05-07 00:06 -5.05631 104.77049 33902 ft 496 kts 296°
2026-05-07 00:07 -5.02629 104.70814 33903 ft 497 kts 296°
2026-05-07 00:07 -4.99613 104.64552 33914 ft 498 kts 296°
2026-05-07 00:08 -4.96623 104.58344 33905 ft 498 kts 296°
2026-05-07 00:08 -4.93608 104.52085 33906 ft 497 kts 296°
2026-05-07 00:09 -4.90598 104.45845 33924 ft 497 kts 296°
2026-05-07 00:09 -4.87555 104.39630 33919 ft 496 kts 296°
2026-05-07 00:10 -4.84507 104.33431 33924 ft 496 kts 296°
2026-05-07 00:10 -4.81463 104.27233 33924 ft 495 kts 296°
2026-05-07 00:11 -4.78426 104.21041 33921 ft 495 kts 296°
2026-05-07 00:11 -4.75389 104.14849 33929 ft 495 kts 296°
2026-05-07 00:12 -4.72350 104.08653 33919 ft 495 kts 296°
2026-05-07 00:12 -4.69321 104.02481 33931 ft 496 kts 296°
2026-05-07 00:13 -4.66276 103.96277 33925 ft 496 kts 296°
2026-05-07 00:13 -4.63222 103.90058 33938 ft 497 kts 296°
2026-05-07 00:14 -4.60173 103.83850 33937 ft 497 kts 296°
2026-05-07 00:14 -4.57115 103.77626 33947 ft 497 kts 296°
2026-05-07 00:15 -4.54059 103.71405 33950 ft 497 kts 296°
2026-05-07 00:15 -4.51002 103.65187 33950 ft 497 kts 296°
2026-05-07 00:16 -4.47963 103.59005 33955 ft 497 kts 296°
2026-05-07 00:16 -4.44908 103.52791 33958 ft 497 kts 296°
2026-05-07 00:17 -4.41854 103.46584 33969 ft 495 kts 296°
2026-05-07 00:17 -4.38808 103.40392 33958 ft 494 kts 296°
2026-05-07 00:18 -4.35770 103.34220 33951 ft 492 kts 296°
2026-05-07 00:18 -4.32760 103.28105 33953 ft 491 kts 296°
2026-05-07 00:19 -4.29740 103.21971 33961 ft 491 kts 296°
2026-05-07 00:19 -4.26715 103.15829 33949 ft 491 kts 296°
2026-05-07 00:20 -4.23695 103.09698 33959 ft 491 kts 297°
2026-05-07 00:20 -4.20671 103.03562 33937 ft 491 kts 297°
2026-05-07 00:21 -4.17641 102.97413 33932 ft 491 kts 297°
2026-05-07 00:21 -4.14618 102.91280 33925 ft 491 kts 297°
2026-05-07 00:22 -4.11597 102.85153 33932 ft 490 kts 297°
2026-05-07 00:22 -4.08574 102.79024 33921 ft 491 kts 297°
2026-05-07 00:23 -4.05574 102.72942 33913 ft 492 kts 297°
2026-05-07 00:23 -4.02525 102.66763 33921 ft 495 kts 297°
2026-05-07 00:24 -3.99466 102.60564 33911 ft 497 kts 297°
2026-05-07 00:24 -3.96418 102.54388 33904 ft 498 kts 297°
2026-05-07 00:25 -3.93346 102.48167 33908 ft 498 kts 297°
2026-05-07 00:25 -3.90273 102.41942 33889 ft 498 kts 297°
2026-05-07 00:26 -3.87210 102.35739 33899 ft 496 kts 297°
2026-05-07 00:26 -3.84149 102.29555 33889 ft 495 kts 297°
2026-05-07 00:27 -3.81603 102.24422 33888 ft 494 kts 297°
2026-05-07 00:27 -3.78038 102.17238 33885 ft 493 kts 297°
2026-05-07 00:28 -3.74997 102.11106 33885 ft 493 kts 297°
2026-05-07 00:28 -3.71948 102.04958 33888 ft 493 kts 297°
2026-05-07 00:29 -3.68889 101.98793 33881 ft 494 kts 297°
2026-05-07 00:30 -3.63282 101.87492 33882 ft 496 kts 297°
2026-05-07 00:30 -3.60212 101.81306 33884 ft 496 kts 297°
2026-05-07 00:31 -3.56642 101.74115 33880 ft 497 kts 297°
2026-05-07 00:31 -3.54062 101.68921 33879 ft 497 kts 297°
2026-05-07 00:32 -3.51002 101.62761 33881 ft 497 kts 296°
2026-05-07 00:32 -3.47934 101.56584 33874 ft 496 kts 296°
2026-05-07 00:33 -3.44856 101.50388 33880 ft 495 kts 296°
2026-05-07 00:33 -3.41793 101.44225 33879 ft 495 kts 296°
2026-05-07 00:34 -3.38728 101.38058 33879 ft 494 kts 296°
2026-05-07 00:34 -3.35667 101.31901 33880 ft 494 kts 296°
2026-05-07 00:35 -3.32597 101.25728 33874 ft 495 kts 296°
2026-05-07 00:35 -3.29548 101.19597 33883 ft 496 kts 296°
2026-05-07 00:36 -3.26470 101.13409 33878 ft 497 kts 296°
2026-05-07 00:36 -3.23389 101.07217 33878 ft 498 kts 296°
2026-05-07 00:37 -3.20303 101.01014 33878 ft 498 kts 296°
2026-05-07 00:37 -3.17219 100.94818 33877 ft 498 kts 296°
2026-05-07 00:38 -3.14127 100.88605 33872 ft 498 kts 296°
2026-05-07 00:38 -3.11055 100.82437 33871 ft 498 kts 296°
2026-05-07 00:39 -3.07958 100.76217 33871 ft 498 kts 296°
2026-05-07 00:39 -3.04874 100.70025 33871 ft 497 kts 296°
2026-05-07 00:40 -3.01791 100.63834 33874 ft 497 kts 296°
2026-05-07 00:40 -2.98708 100.57646 33870 ft 497 kts 296°
2026-05-07 00:41 -2.95618 100.51445 33881 ft 498 kts 295°
2026-05-07 00:41 -2.92523 100.45236 33871 ft 498 kts 295°
2026-05-07 00:42 -2.89449 100.39069 33877 ft 499 kts 295°
2026-05-07 00:42 -2.86352 100.32857 33873 ft 499 kts 295°
2026-05-07 00:43 -2.83253 100.26642 33875 ft 499 kts 295°
2026-05-07 00:43 -2.80148 100.20416 33874 ft 499 kts 295°
2026-05-07 00:44 -2.77054 100.14211 33875 ft 499 kts 296°
2026-05-07 00:44 -2.73950 100.07990 33875 ft 498 kts 296°
2026-05-07 00:45 -2.70851 100.01779 33872 ft 498 kts 296°
2026-05-07 00:45 -2.67778 99.95621 33871 ft 498 kts 296°
2026-05-07 00:46 -2.64685 99.89423 33870 ft 497 kts 296°
2026-05-07 00:46 -2.61598 99.83239 33876 ft 497 kts 296°
2026-05-07 00:47 -2.58510 99.77054 33871 ft 495 kts 296°
2026-05-07 00:47 -2.55440 99.70904 33867 ft 493 kts 296°
2026-05-07 00:48 -2.52382 99.64780 33870 ft 492 kts 296°
2026-05-07 00:48 -2.49347 99.58701 33870 ft 491 kts 296°
2026-05-07 00:49 -2.46318 99.52570 33873 ft 490 kts 295°
2026-05-07 00:49 -2.43407 99.46400 33872 ft 491 kts 294°
2026-05-07 00:50 -2.40514 99.40213 33869 ft 491 kts 295°
2026-05-07 00:50 -2.37601 99.34021 33873 ft 492 kts 294°
2026-05-07 00:51 -2.34677 99.27831 33873 ft 493 kts 295°
2026-05-07 00:51 -2.31737 99.21615 33872 ft 494 kts 295°
2026-05-07 00:52 -2.28821 99.15449 33873 ft 494 kts 295°
2026-05-07 00:52 -2.25876 99.09219 33875 ft 495 kts 295°
2026-05-07 00:53 -2.22925 99.02977 33871 ft 496 kts 295°
2026-05-07 00:53 -2.19970 98.96729 33878 ft 497 kts 295°
2026-05-07 00:54 -2.17014 98.90480 33876 ft 497 kts 295°
2026-05-07 00:54 -2.14071 98.84257 33872 ft 498 kts 295°
2026-05-07 00:55 -2.11111 98.78000 33871 ft 498 kts 295°
2026-05-07 00:55 -2.08148 98.71738 33873 ft 498 kts 295°
2026-05-07 00:56 -2.06665 98.68603 33985 ft 499 kts 295°
2026-05-07 00:56 -2.05183 98.65471 34321 ft 497 kts 295°
2026-05-07 00:56 -2.03709 98.62357 34678 ft 495 kts 295°
2026-05-07 00:56 -2.02236 98.59245 34982 ft 494 kts 295°
2026-05-07 00:57 -2.00772 98.56152 35338 ft 492 kts 295°
2026-05-07 00:57 -1.99309 98.53061 35648 ft 491 kts 295°
2026-05-07 00:57 -1.97846 98.49971 35794 ft 492 kts 295°
2026-05-07 00:57 -1.96375 98.46863 35797 ft 495 kts 296°
2026-05-07 00:58 -1.93452 98.40690 35865 ft 493 kts 295°
2026-05-07 00:58 -1.90523 98.34503 35868 ft 490 kts 296°
2026-05-07 00:59 -1.86150 98.25267 35884 ft 489 kts 296°
2026-05-07 01:00 -1.83234 98.19111 35876 ft 491 kts 296°
2026-05-07 01:00 -1.80318 98.12954 35891 ft 493 kts 296°
2026-05-07 01:01 -1.77381 98.06754 35880 ft 495 kts 296°
2026-05-07 01:01 -1.74426 98.00515 35873 ft 496 kts 296°
2026-05-07 01:02 -1.71471 97.94278 35874 ft 497 kts 296°
2026-05-07 01:02 -1.68504 97.88016 35880 ft 497 kts 296°
2026-05-07 01:03 -1.65544 97.81769 35875 ft 497 kts 296°
2026-05-07 01:03 -1.62583 97.75519 35872 ft 497 kts 296°
2026-05-07 01:04 -1.59645 97.69321 35878 ft 496 kts 296°
2026-05-07 01:04 -1.56648 97.63103 35873 ft 496 kts 297°
2026-05-07 01:05 -1.53616 97.56924 35880 ft 495 kts 297°
2026-05-07 01:05 -1.50587 97.50746 35872 ft 495 kts 297°
2026-05-07 01:06 -1.47566 97.44564 35875 ft 495 kts 297°
2026-05-07 01:06 -1.44545 97.38375 35874 ft 495 kts 297°
2026-05-07 01:07 -1.41528 97.32192 35873 ft 495 kts 297°
2026-05-07 01:07 -1.38508 97.26005 35874 ft 495 kts 297°
2026-05-07 01:08 -1.35502 97.19847 35877 ft 495 kts 297°
2026-05-07 01:08 -1.32482 97.13662 35875 ft 496 kts 297°
2026-05-07 01:09 -1.29456 97.07464 35875 ft 496 kts 297°
2026-05-07 01:09 -1.26429 97.01267 35877 ft 496 kts 297°
2026-05-07 01:10 -1.23402 96.95067 35879 ft 496 kts 297°
2026-05-07 01:10 -1.20373 96.88867 35876 ft 496 kts 297°
2026-05-07 01:11 -1.17342 96.82660 35875 ft 496 kts 297°
2026-05-07 01:11 -1.14312 96.76457 35873 ft 497 kts 297°
2026-05-07 01:12 -1.11281 96.70252 35875 ft 497 kts 297°
2026-05-07 01:12 -1.08266 96.64081 35874 ft 497 kts 297°
2026-05-07 01:13 -1.05228 96.57864 35874 ft 498 kts 297°
2026-05-07 01:13 -1.02188 96.51641 35874 ft 498 kts 297°
2026-05-07 01:14 -0.99149 96.45421 35881 ft 498 kts 297°
2026-05-07 01:14 -0.96107 96.39196 35877 ft 499 kts 297°
2026-05-07 01:15 -0.93080 96.33001 35874 ft 499 kts 297°
2026-05-07 01:15 -0.90035 96.26771 35878 ft 499 kts 297°
2026-05-07 01:16 -0.86987 96.20534 35875 ft 499 kts 297°
2026-05-07 01:16 -0.83941 96.14301 35874 ft 499 kts 297°
2026-05-07 01:17 -0.80895 96.08070 35880 ft 499 kts 297°
2026-05-07 01:17 -0.78361 96.02886 35874 ft 499 kts 297°
2026-05-07 01:18 -0.75313 95.96649 35870 ft 499 kts 297°
2026-05-07 01:18 -0.72262 95.90408 35872 ft 500 kts 297°
2026-05-07 01:19 -0.69210 95.84164 35872 ft 500 kts 297°
2026-05-07 01:19 -0.66158 95.77923 35871 ft 500 kts 297°
2026-05-07 01:20 -0.63103 95.71673 35871 ft 500 kts 297°
2026-05-07 01:20 -0.60049 95.65426 35872 ft 500 kts 297°
2026-05-07 01:21 -0.56993 95.59176 35873 ft 500 kts 297°
2026-05-07 01:21 -0.53936 95.52923 35872 ft 500 kts 297°
2026-05-07 01:22 -0.50896 95.46705 35871 ft 500 kts 297°
2026-05-07 01:22 -0.47842 95.40459 35875 ft 500 kts 297°
2026-05-07 01:23 -0.44787 95.34211 35870 ft 500 kts 297°
2026-05-07 01:23 -0.41731 95.27961 35871 ft 500 kts 297°
2026-05-07 01:24 -0.38693 95.21747 35871 ft 500 kts 297°
2026-05-07 01:24 -0.35640 95.15502 35871 ft 500 kts 297°
2026-05-07 01:25 -0.32582 95.09249 35872 ft 500 kts 297°
2026-05-07 01:25 -0.29522 95.02992 35871 ft 500 kts 297°
2026-05-07 01:26 -0.26465 94.96740 35870 ft 501 kts 297°
2026-05-07 01:26 -0.23422 94.90514 35872 ft 501 kts 297°
2026-05-07 01:27 -0.20360 94.84250 35868 ft 501 kts 297°
2026-05-07 01:27 -0.17301 94.77991 35870 ft 501 kts 297°
2026-05-07 01:28 -0.14263 94.71776 35871 ft 501 kts 297°
2026-05-07 01:28 -0.11205 94.65519 35871 ft 501 kts 297°
2026-05-07 01:29 -0.08145 94.59259 35872 ft 501 kts 297°
2026-05-07 01:29 -0.05084 94.52996 35870 ft 501 kts 297°
2026-05-07 01:30 -0.02024 94.46736 35869 ft 501 kts 297°
2026-05-07 01:30 0.01029 94.40490 35878 ft 500 kts 297°
2026-05-07 01:31 0.04069 94.34271 35871 ft 501 kts 297°
2026-05-07 01:31 0.07128 94.28012 35872 ft 501 kts 297°
2026-05-07 01:32 0.10188 94.21752 35864 ft 501 kts 297°
2026-05-07 01:32 0.13244 94.15500 35868 ft 501 kts 297°
2026-05-07 01:33 0.16286 94.09275 35865 ft 501 kts 297°
2026-05-07 01:33 0.19350 94.03007 35867 ft 501 kts 297°
2026-05-07 01:34 0.22406 93.96753 35868 ft 501 kts 297°
2026-05-07 01:34 0.25469 93.90486 35865 ft 501 kts 297°
2026-05-07 01:35 0.28527 93.84229 35865 ft 501 kts 297°
2026-05-07 01:35 0.31590 93.77962 35863 ft 501 kts 297°
2026-05-07 01:36 0.34649 93.71701 35864 ft 501 kts 297°
2026-05-07 01:36 0.37705 93.65446 35864 ft 501 kts 297°
2026-05-07 01:37 0.40742 93.59221 35861 ft 501 kts 297°
2026-05-07 01:37 0.43793 93.52960 35862 ft 501 kts 297°
2026-05-07 01:38 0.46840 93.46707 35861 ft 501 kts 297°
2026-05-07 01:38 0.49895 93.40438 35858 ft 501 kts 297°
2026-05-07 01:39 0.52941 93.34186 35861 ft 501 kts 297°
2026-05-07 01:39 0.55991 93.27928 35861 ft 501 kts 297°
2026-05-07 01:40 0.59019 93.21715 35860 ft 501 kts 297°
2026-05-07 01:40 0.62069 93.15456 35861 ft 501 kts 297°
2026-05-07 01:41 0.65121 93.09193 35861 ft 501 kts 297°
2026-05-07 01:41 0.68169 93.02938 35863 ft 501 kts 297°
2026-05-07 01:42 0.71221 92.96674 35859 ft 501 kts 297°
2026-05-07 01:42 0.74265 92.90425 35860 ft 500 kts 297°
2026-05-07 01:43 0.77296 92.84204 35859 ft 500 kts 297°
2026-05-07 01:43 0.80344 92.77948 35857 ft 500 kts 297°
2026-05-07 01:44 0.83387 92.71700 35855 ft 499 kts 297°
2026-05-07 01:44 0.86420 92.65473 35855 ft 499 kts 297°
2026-05-07 01:45 0.89467 92.59218 35861 ft 499 kts 297°
2026-05-07 01:45 0.92507 92.52978 35861 ft 500 kts 297°
2026-05-07 01:46 0.95551 92.46728 35861 ft 500 kts 297°
2026-05-07 01:46 0.98593 92.40481 35858 ft 500 kts 297°
2026-05-07 01:47 1.01637 92.34230 35857 ft 500 kts 297°
2026-05-07 01:47 1.04668 92.28006 35861 ft 501 kts 297°
2026-05-07 01:48 1.07712 92.21753 35857 ft 500 kts 297°
2026-05-07 01:48 1.10760 92.15494 35858 ft 500 kts 297°
2026-05-07 01:49 1.13799 92.09251 35853 ft 499 kts 297°
2026-05-07 01:49 1.16834 92.03014 35851 ft 499 kts 297°
2026-05-07 01:50 1.19889 91.96768 35852 ft 499 kts 297°
2026-05-07 01:50 1.22983 91.90558 35852 ft 499 kts 297°
2026-05-07 01:51 1.26065 91.84389 35853 ft 499 kts 297°
2026-05-07 01:51 1.29161 91.78176 35852 ft 499 kts 297°
2026-05-07 01:52 1.32255 91.71954 35852 ft 499 kts 297°
2026-05-07 01:52 1.35340 91.65748 35854 ft 499 kts 297°
2026-05-07 01:53 1.38430 91.59532 35854 ft 499 kts 297°
2026-05-07 01:53 1.41519 91.53318 35856 ft 498 kts 297°
2026-05-07 01:54 1.44607 91.47108 35851 ft 499 kts 297°
2026-05-07 01:54 1.47679 91.40928 35857 ft 500 kts 297°
2026-05-07 01:55 1.50780 91.34688 35856 ft 500 kts 297°
2026-05-07 01:55 1.53880 91.28450 35853 ft 501 kts 297°
2026-05-07 01:56 1.56986 91.22200 35856 ft 502 kts 297°
2026-05-07 01:56 1.60097 91.15940 35855 ft 503 kts 297°
2026-05-07 01:57 1.63210 91.09674 35857 ft 504 kts 297°
2026-05-07 01:57 1.66331 91.03392 35855 ft 505 kts 297°
2026-05-07 01:58 1.69457 90.97100 35853 ft 505 kts 297°
2026-05-07 01:58 1.72578 90.90817 35855 ft 505 kts 297°
2026-05-07 01:59 1.75679 90.84572 35854 ft 504 kts 297°
2026-05-07 01:59 1.78800 90.78287 35854 ft 504 kts 297°
2026-05-07 02:00 1.81917 90.72012 35856 ft 504 kts 297°
2026-05-07 02:00 1.85036 90.65729 35861 ft 504 kts 297°
2026-05-07 02:01 1.88155 90.59447 35861 ft 504 kts 297°
2026-05-07 02:01 1.91268 90.53176 35856 ft 504 kts 297°
2026-05-07 02:02 1.94382 90.46902 35856 ft 504 kts 297°
2026-05-07 02:02 1.97495 90.40630 35858 ft 503 kts 297°
2026-05-07 02:03 2.00588 90.34396 35858 ft 503 kts 297°
2026-05-07 02:03 2.03699 90.28125 35859 ft 503 kts 297°
2026-05-07 02:04 2.06812 90.21851 35858 ft 504 kts 297°
2026-05-07 02:04 2.09400 90.16635 35858 ft 504 kts 297°
2026-05-07 02:05 2.12517 90.10349 35857 ft 504 kts 297°
2026-05-07 02:05 2.15631 90.04072 35859 ft 504 kts 297°
2026-05-07 02:06 2.18746 89.97788 35858 ft 505 kts 297°
2026-05-07 02:06 2.21868 89.91491 35866 ft 505 kts 297°
2026-05-07 02:07 2.24975 89.85222 35861 ft 507 kts 297°
2026-05-07 02:07 2.29676 89.75738 35859 ft 508 kts 297°
2026-05-07 02:08 2.32808 89.69415 35858 ft 508 kts 297°
2026-05-07 02:08 2.35945 89.63077 35862 ft 508 kts 297°
2026-05-07 02:09 2.39080 89.56740 35859 ft 507 kts 297°
2026-05-07 02:09 2.42205 89.50424 35857 ft 507 kts 297°
2026-05-07 02:10 2.45331 89.44104 35861 ft 506 kts 297°
2026-05-07 02:10 2.48439 89.37820 35853 ft 506 kts 297°
2026-05-07 02:11 2.51565 89.31499 35855 ft 505 kts 297°
2026-05-07 02:11 2.54678 89.25202 35853 ft 505 kts 297°
2026-05-07 02:12 2.57796 89.18895 35858 ft 506 kts 297°
2026-05-07 02:12 2.60918 89.12581 35859 ft 506 kts 297°
2026-05-07 02:13 2.64021 89.06302 35855 ft 507 kts 297°
2026-05-07 02:13 2.67150 88.99969 35856 ft 508 kts 297°
2026-05-07 02:14 2.70282 88.93629 35858 ft 508 kts 297°
2026-05-07 02:14 2.73412 88.87294 35853 ft 507 kts 297°
2026-05-07 02:15 2.76535 88.80970 35854 ft 507 kts 297°
2026-05-07 02:15 2.79640 88.74681 35853 ft 507 kts 297°
2026-05-07 02:16 2.82763 88.68358 35852 ft 506 kts 297°
2026-05-07 02:16 2.85879 88.62045 35853 ft 506 kts 297°
2026-05-07 02:17 2.89000 88.55720 35853 ft 507 kts 297°
2026-05-07 02:17 2.92123 88.49391 35852 ft 507 kts 297°
2026-05-07 02:18 2.95287 88.43097 35863 ft 505 kts 298°
2026-05-07 02:18 2.98576 88.36894 35854 ft 503 kts 299°
2026-05-07 02:19 3.01863 88.30727 35848 ft 501 kts 299°
2026-05-07 02:19 3.05098 88.24606 35848 ft 500 kts 298°
2026-05-07 02:20 3.08336 88.18453 35858 ft 500 kts 298°
2026-05-07 02:20 3.11582 88.12281 35851 ft 501 kts 298°
2026-05-07 02:21 3.14830 88.06108 35859 ft 502 kts 298°
2026-05-07 02:21 3.18085 87.99923 35852 ft 502 kts 298°
2026-05-07 02:22 3.21346 87.93724 35849 ft 503 kts 298°
2026-05-07 02:22 3.24607 87.87523 35850 ft 503 kts 298°
2026-05-07 02:23 3.27872 87.81314 35849 ft 503 kts 298°
2026-05-07 02:23 3.31109 87.75157 35849 ft 503 kts 298°
2026-05-07 02:24 3.34291 87.68924 35858 ft 503 kts 297°
2026-05-07 02:24 3.37392 87.62647 35838 ft 502 kts 297°
2026-05-07 02:25 3.40484 87.56385 35852 ft 501 kts 297°
2026-05-07 02:25 3.43583 87.50145 35849 ft 501 kts 297°
2026-05-07 02:26 3.46693 87.43900 35856 ft 501 kts 297°
2026-05-07 02:26 3.49802 87.37657 35853 ft 502 kts 297°
2026-05-07 02:27 3.52919 87.31395 35856 ft 503 kts 297°
2026-05-07 02:27 3.56019 87.25163 35853 ft 503 kts 297°
2026-05-07 02:28 3.59135 87.18900 35856 ft 502 kts 297°
2026-05-07 02:28 3.62256 87.12625 35853 ft 502 kts 297°
2026-05-07 02:29 3.65366 87.06370 35846 ft 502 kts 297°
2026-05-07 02:29 3.68461 87.00145 35849 ft 501 kts 297°
2026-05-07 02:30 3.71583 86.93863 35847 ft 501 kts 297°
2026-05-07 02:30 3.74668 86.87654 35850 ft 501 kts 297°
2026-05-07 02:31 3.77770 86.81410 35852 ft 501 kts 297°
2026-05-07 02:31 3.80874 86.75161 35852 ft 500 kts 297°
2026-05-07 02:32 3.83976 86.68915 35846 ft 500 kts 297°
2026-05-07 02:32 3.87049 86.62725 35847 ft 499 kts 297°
2026-05-07 02:33 3.90139 86.56500 35841 ft 499 kts 296°
2026-05-07 02:33 3.93227 86.50278 35848 ft 498 kts 296°
2026-05-07 02:34 3.96314 86.44056 35844 ft 499 kts 296°
2026-05-07 02:34 3.99402 86.37831 35844 ft 499 kts 296°
2026-05-07 02:35 4.02495 86.31594 35844 ft 499 kts 296°
2026-05-07 02:35 4.05586 86.25360 35843 ft 500 kts 296°
2026-05-07 02:36 4.08678 86.19122 35844 ft 500 kts 296°
2026-05-07 02:36 4.11772 86.12879 35848 ft 501 kts 297°
2026-05-07 02:37 4.14881 86.06605 35847 ft 502 kts 297°
2026-05-07 02:37 4.17992 86.00325 35844 ft 504 kts 297°
2026-05-07 02:38 4.21093 85.94063 35835 ft 505 kts 297°
2026-05-07 02:38 4.24219 85.87749 35844 ft 505 kts 297°
2026-05-07 02:39 4.27342 85.81440 35848 ft 505 kts 297°
2026-05-07 02:39 4.30462 85.75136 35844 ft 505 kts 297°
2026-05-07 02:40 4.33567 85.68860 35830 ft 505 kts 297°
2026-05-07 02:40 4.36683 85.62560 35843 ft 504 kts 297°
2026-05-07 02:41 4.39799 85.56259 35849 ft 504 kts 297°
2026-05-07 02:41 4.42910 85.49966 35834 ft 503 kts 297°
2026-05-07 02:42 4.46021 85.43672 35846 ft 503 kts 297°
2026-05-07 02:42 4.49123 85.37393 35846 ft 503 kts 297°
2026-05-07 02:43 4.52227 85.31110 35849 ft 503 kts 297°
2026-05-07 02:43 4.55328 85.24832 35846 ft 502 kts 297°
2026-05-07 02:44 4.58407 85.18595 35843 ft 502 kts 297°
2026-05-07 02:44 4.61503 85.12323 35846 ft 501 kts 297°
2026-05-07 02:45 4.64599 85.06050 35826 ft 501 kts 297°
2026-05-07 02:45 4.67687 84.99791 35845 ft 501 kts 297°
2026-05-07 02:46 4.70775 84.93530 35844 ft 501 kts 297°
2026-05-07 02:46 4.73860 84.87273 35844 ft 500 kts 297°
2026-05-07 02:47 4.76947 84.81010 35825 ft 501 kts 297°
2026-05-07 02:47 4.80013 84.74788 35842 ft 501 kts 297°
2026-05-07 02:48 4.83098 84.68528 35843 ft 501 kts 297°
2026-05-07 02:48 4.86182 84.62265 35842 ft 501 kts 297°
2026-05-07 02:49 4.89265 84.56004 35843 ft 501 kts 297°
2026-05-07 02:49 4.92347 84.49742 35824 ft 501 kts 297°
2026-05-07 02:50 4.94909 84.44537 35848 ft 500 kts 297°
2026-05-07 02:50 4.97988 84.38280 35840 ft 500 kts 297°
2026-05-07 02:51 5.01062 84.32029 35842 ft 499 kts 297°
2026-05-07 02:51 5.04133 84.25782 35841 ft 498 kts 296°
2026-05-07 02:52 5.07196 84.19551 35845 ft 498 kts 296°
2026-05-07 02:52 5.10239 84.13358 35825 ft 498 kts 296°
2026-05-07 02:53 5.13305 84.07117 35845 ft 498 kts 296°
2026-05-07 02:53 5.16369 84.00878 35841 ft 498 kts 296°
2026-05-07 02:54 5.19381 83.94635 35843 ft 498 kts 296°
2026-05-07 02:54 5.22349 83.88360 35845 ft 498 kts 296°
2026-05-07 02:55 5.25299 83.82116 35845 ft 498 kts 296°
2026-05-07 02:55 5.28272 83.75844 35830 ft 497 kts 296°
2026-05-07 02:56 5.31249 83.69575 35828 ft 498 kts 295°
2026-05-07 02:56 5.34230 83.63293 35851 ft 498 kts 295°
2026-05-07 02:57 5.37212 83.57007 35846 ft 499 kts 295°
2026-05-07 02:57 5.40203 83.50698 35848 ft 500 kts 296°
2026-05-07 02:58 5.43179 83.44420 35848 ft 501 kts 296°
2026-05-07 02:58 5.46175 83.38099 35845 ft 501 kts 296°
2026-05-07 02:59 5.49167 83.31784 35848 ft 501 kts 296°
2026-05-07 02:59 5.52163 83.25458 35846 ft 500 kts 296°
2026-05-07 03:00 5.55149 83.19151 35843 ft 500 kts 296°
2026-05-07 03:00 5.58119 83.12874 35845 ft 500 kts 296°
2026-05-07 03:01 5.61112 83.06549 35846 ft 500 kts 296°
2026-05-07 03:01 5.64098 83.00235 35845 ft 500 kts 296°
2026-05-07 03:02 5.67086 82.93916 35842 ft 500 kts 296°
2026-05-07 03:02 5.70066 82.87610 35844 ft 500 kts 296°
2026-05-07 03:03 5.73025 82.81348 35843 ft 499 kts 296°
2026-05-07 03:03 5.76000 82.75049 35845 ft 498 kts 296°
2026-05-07 03:04 5.78972 82.68755 35843 ft 498 kts 296°
2026-05-07 03:04 5.81936 82.62475 35844 ft 497 kts 296°
2026-05-07 03:05 5.84883 82.56231 35843 ft 497 kts 296°
2026-05-07 03:05 5.87842 82.49957 35844 ft 497 kts 296°
2026-05-07 03:06 5.90804 82.43676 35844 ft 497 kts 296°
2026-05-07 03:06 5.93763 82.37398 35844 ft 498 kts 296°
2026-05-07 03:07 5.96730 82.31102 35844 ft 498 kts 296°
2026-05-07 03:07 5.99691 82.24815 35845 ft 498 kts 296°
2026-05-07 03:08 6.02656 82.18518 35845 ft 499 kts 296°
2026-05-07 03:08 6.05622 82.12215 35846 ft 498 kts 296°
2026-05-07 03:09 6.08582 82.05923 35842 ft 498 kts 296°
2026-05-07 03:09 6.11525 81.99666 35844 ft 497 kts 296°
2026-05-07 03:10 6.14480 81.93393 35843 ft 497 kts 296°
2026-05-07 03:10 6.17456 81.87128 35843 ft 496 kts 296°
2026-05-07 03:11 6.20427 81.80877 35844 ft 496 kts 296°
2026-05-07 03:11 6.23404 81.74603 35846 ft 496 kts 296°
2026-05-07 03:12 6.26369 81.68346 35845 ft 496 kts 296°
2026-05-07 03:12 6.29315 81.62129 35852 ft 496 kts 296°
2026-05-07 03:13 6.32282 81.55865 35851 ft 496 kts 296°
2026-05-07 03:13 6.35291 81.49628 35852 ft 496 kts 297°
2026-05-07 03:14 6.38419 81.43449 35851 ft 496 kts 297°
2026-05-07 03:15 6.43118 81.34181 35849 ft 496 kts 297°
2026-05-07 03:15 6.46227 81.27997 35854 ft 496 kts 297°
2026-05-07 03:16 6.49317 81.21841 35858 ft 496 kts 297°
2026-05-07 03:16 6.52425 81.15648 35861 ft 496 kts 297°
2026-05-07 03:17 6.55541 81.09439 35861 ft 497 kts 297°
2026-05-07 03:17 6.58656 81.03229 35866 ft 497 kts 297°
2026-05-07 03:18 6.61767 80.97024 35884 ft 497 kts 297°
2026-05-07 03:18 6.64879 80.90814 35896 ft 497 kts 297°
2026-05-07 03:19 6.67995 80.84595 35893 ft 497 kts 297°
2026-05-07 03:19 6.71111 80.78373 35889 ft 498 kts 297°
2026-05-07 03:20 6.74223 80.72157 35894 ft 498 kts 297°
2026-05-07 03:20 6.77288 80.65967 35905 ft 498 kts 297°
2026-05-07 03:21 6.80355 80.59721 35891 ft 497 kts 297°
2026-05-07 03:21 6.83419 80.53483 35891 ft 497 kts 297°
2026-05-07 03:22 6.86485 80.47245 35892 ft 497 kts 297°
2026-05-07 03:22 6.89553 80.41005 35870 ft 497 kts 297°
2026-05-07 03:23 6.92622 80.34762 35868 ft 497 kts 297°
2026-05-07 03:23 6.95690 80.28516 35853 ft 497 kts 297°
2026-05-07 03:24 6.98759 80.22266 35850 ft 497 kts 297°
2026-05-07 03:24 7.01825 80.16021 35839 ft 497 kts 297°
2026-05-07 03:25 7.04887 80.09780 35830 ft 497 kts 297°
2026-05-07 03:25 7.07925 80.03586 35829 ft 496 kts 297°
2026-05-07 03:26 7.10980 79.97354 35829 ft 496 kts 297°
2026-05-07 03:26 7.14030 79.91128 35858 ft 495 kts 297°
2026-05-07 03:27 7.17064 79.84918 35854 ft 494 kts 296°
2026-05-07 03:27 7.20015 79.78715 35860 ft 493 kts 296°
2026-05-07 03:28 7.22959 79.72478 35849 ft 493 kts 296°
2026-05-07 03:28 7.25910 79.66242 35830 ft 492 kts 296°
2026-05-07 03:29 7.28857 79.60025 35830 ft 492 kts 296°
2026-05-07 03:29 7.31815 79.53789 35836 ft 493 kts 296°
2026-05-07 03:30 7.34752 79.47590 35839 ft 493 kts 296°
2026-05-07 03:30 7.37705 79.41356 35844 ft 493 kts 296°
2026-05-07 03:31 7.40661 79.35112 35842 ft 493 kts 296°
2026-05-07 03:31 7.43616 79.28868 35840 ft 493 kts 296°
2026-05-07 03:32 7.46564 79.22634 35850 ft 493 kts 296°
2026-05-07 03:32 7.49518 79.16384 35845 ft 492 kts 296°
2026-05-07 03:33 7.52423 79.10184 35855 ft 492 kts 295°
2026-05-07 03:33 7.55153 79.03860 35859 ft 491 kts 294°
2026-05-07 03:34 7.57820 78.97537 35848 ft 490 kts 294°
2026-05-07 03:34 7.60507 78.91229 35847 ft 489 kts 294°
2026-05-07 03:35 7.63201 78.84953 35847 ft 488 kts 294°
2026-05-07 03:35 7.65901 78.78673 35849 ft 487 kts 294°
2026-05-07 03:36 7.68575 78.72447 35849 ft 487 kts 294°
2026-05-07 03:36 7.71273 78.66159 35845 ft 488 kts 294°
2026-05-07 03:37 7.73966 78.59879 35852 ft 488 kts 294°
2026-05-07 03:37 7.76208 78.54648 35850 ft 489 kts 294°
2026-05-07 03:38 7.78908 78.48345 35847 ft 490 kts 294°
2026-05-07 03:38 7.81618 78.42017 35853 ft 491 kts 294°
2026-05-07 03:39 7.84326 78.35690 35850 ft 491 kts 294°
2026-05-07 03:39 7.87036 78.29356 35846 ft 492 kts 294°
2026-05-07 03:40 7.89741 78.23028 35848 ft 491 kts 294°
2026-05-07 03:40 7.92446 78.16700 35851 ft 491 kts 294°
2026-05-07 03:41 7.95183 78.10416 35849 ft 491 kts 295°
2026-05-07 03:41 7.97995 78.04137 35848 ft 490 kts 295°
2026-05-07 03:42 8.00798 77.97874 35848 ft 490 kts 295°
2026-05-07 03:42 8.03595 77.91593 35841 ft 490 kts 294°
2026-05-07 03:43 8.06368 77.85350 35853 ft 491 kts 294°
2026-05-07 03:43 8.09175 77.79027 35853 ft 493 kts 294°
2026-05-07 03:44 8.11979 77.72709 35850 ft 494 kts 294°
2026-05-07 03:44 8.14788 77.66377 35851 ft 495 kts 294°
2026-05-07 03:45 8.17602 77.60032 35852 ft 495 kts 294°
2026-05-07 03:45 8.20417 77.53680 35858 ft 496 kts 294°
2026-05-07 03:46 8.23242 77.47301 35858 ft 497 kts 294°
2026-05-07 03:46 8.26067 77.40921 35860 ft 497 kts 294°
2026-05-07 03:47 8.28892 77.34538 35851 ft 498 kts 294°
2026-05-07 03:47 8.31696 77.28198 35863 ft 497 kts 294°
2026-05-07 03:48 8.34533 77.21781 35855 ft 497 kts 294°
2026-05-07 03:48 8.37335 77.15438 35854 ft 497 kts 294°
2026-05-07 03:49 8.40150 77.09063 35854 ft 497 kts 294°
2026-05-07 03:49 8.42970 77.02673 35859 ft 498 kts 294°
2026-05-07 03:50 8.45792 76.96276 35883 ft 498 kts 294°
2026-05-07 03:50 8.48427 76.89858 35884 ft 498 kts 289°
2026-05-07 03:51 8.50636 76.83231 35855 ft 497 kts 288°
2026-05-07 03:51 8.52806 76.76609 35848 ft 497 kts 288°
2026-05-07 03:52 8.54996 76.69995 35849 ft 496 kts 288°
2026-05-07 03:52 8.57204 76.63377 35850 ft 496 kts 288°
2026-05-07 03:53 8.59409 76.56779 35854 ft 495 kts 288°
2026-05-07 03:53 8.61607 76.50197 35856 ft 495 kts 288°
2026-05-07 03:54 8.63741 76.43796 35849 ft 495 kts 288°
2026-05-07 03:54 8.65963 76.37127 35852 ft 495 kts 288°
2026-05-07 03:55 8.68160 76.30529 35854 ft 495 kts 288°
2026-05-07 03:55 8.70353 76.23938 35852 ft 496 kts 288°
2026-05-07 03:56 8.72547 76.17341 35853 ft 496 kts 288°
2026-05-07 03:56 8.74728 76.10780 35857 ft 496 kts 288°
2026-05-07 03:57 8.76922 76.04175 35856 ft 496 kts 288°
2026-05-07 03:57 8.79116 75.97565 35855 ft 496 kts 288°
2026-05-07 03:58 8.81308 75.90956 35855 ft 496 kts 288°
2026-05-07 03:58 8.83507 75.84324 35858 ft 496 kts 288°
2026-05-07 03:59 8.85695 75.77719 35855 ft 496 kts 288°
2026-05-07 03:59 8.87868 75.71155 35854 ft 495 kts 288°
2026-05-07 04:00 8.90046 75.64573 35856 ft 495 kts 288°
2026-05-07 04:00 8.92235 75.57952 35861 ft 495 kts 288°
2026-05-07 04:01 8.94418 75.51345 35862 ft 495 kts 288°
2026-05-07 04:01 8.96597 75.44748 35858 ft 495 kts 288°
2026-05-07 04:02 8.98779 75.38135 35856 ft 495 kts 288°
2026-05-07 04:02 9.00958 75.31527 35859 ft 496 kts 288°
2026-05-07 04:03 9.03137 75.24916 35858 ft 496 kts 288°
2026-05-07 04:03 9.05317 75.18297 35858 ft 496 kts 288°
2026-05-07 04:04 9.07476 75.11738 35858 ft 497 kts 288°
2026-05-07 04:04 9.09660 75.05096 35858 ft 497 kts 288°
2026-05-07 04:05 9.11837 74.98471 35858 ft 497 kts 288°
2026-05-07 04:05 9.14022 74.91819 35857 ft 497 kts 288°
2026-05-07 04:06 9.16193 74.85207 35857 ft 496 kts 288°
2026-05-07 04:06 9.18345 74.78647 35856 ft 496 kts 288°
2026-05-07 04:07 9.20519 74.72015 35858 ft 495 kts 288°
2026-05-07 04:07 9.22683 74.65409 35857 ft 495 kts 288°
2026-05-07 04:08 9.24832 74.58842 35858 ft 494 kts 288°
2026-05-07 04:08 9.27004 74.52203 35857 ft 494 kts 288°
2026-05-07 04:09 9.29155 74.45624 35861 ft 494 kts 288°
2026-05-07 04:09 9.31301 74.39053 35860 ft 494 kts 288°
2026-05-07 04:10 9.33459 74.32442 35859 ft 495 kts 288°
2026-05-07 04:10 9.35620 74.25819 35866 ft 496 kts 288°
2026-05-07 04:11 9.37775 74.19206 35866 ft 497 kts 288°
2026-05-07 04:11 9.39948 74.12534 35862 ft 498 kts 288°
2026-05-07 04:12 9.42126 74.05876 35864 ft 498 kts 288°
2026-05-07 04:12 9.44344 73.99209 35863 ft 499 kts 288°
2026-05-07 04:13 9.46566 73.92542 35856 ft 499 kts 288°
2026-05-07 04:13 9.48784 73.85864 35868 ft 500 kts 288°
2026-05-07 04:14 9.50985 73.79223 35864 ft 501 kts 288°
2026-05-07 04:14 9.53207 73.72514 35866 ft 501 kts 288°
2026-05-07 04:15 9.55421 73.65823 35862 ft 501 kts 288°
2026-05-07 04:15 9.57639 73.59116 35863 ft 502 kts 288°
2026-05-07 04:16 9.59856 73.52411 35867 ft 502 kts 288°
2026-05-07 04:16 9.62062 73.45730 35866 ft 502 kts 288°
2026-05-07 04:17 9.64279 73.39013 35865 ft 502 kts 288°
2026-05-07 04:17 9.66494 73.32297 35866 ft 502 kts 288°
2026-05-07 04:18 9.68706 73.25585 35874 ft 502 kts 288°
2026-05-07 04:18 9.70916 73.18876 35858 ft 500 kts 288°
2026-05-07 04:19 9.73112 73.12201 35854 ft 498 kts 288°
2026-05-07 04:19 9.75302 73.05540 35859 ft 497 kts 288°
2026-05-07 04:20 9.77489 72.98887 35871 ft 496 kts 287°
2026-05-07 04:20 9.79667 72.92254 35883 ft 496 kts 287°
2026-05-07 04:21 9.82915 72.82353 35864 ft 493 kts 287°
2026-05-07 04:21 9.85077 72.75756 35862 ft 492 kts 287°
2026-05-07 04:22 9.87235 72.69167 35866 ft 491 kts 287°
2026-05-07 04:22 9.89025 72.63698 35868 ft 491 kts 287°
2026-05-07 04:23 9.91179 72.57112 35864 ft 492 kts 287°
2026-05-07 04:23 9.93336 72.50511 35867 ft 493 kts 287°
2026-05-07 04:24 9.95499 72.43899 35879 ft 494 kts 288°
2026-05-07 04:24 9.98316 72.37571 35864 ft 497 kts 299°
2026-05-07 04:25 10.02118 72.31705 35881 ft 498 kts 304°
2026-05-07 04:25 10.06038 72.25905 35867 ft 499 kts 303°
2026-05-07 04:26 10.09937 72.20082 35886 ft 498 kts 303°
2026-05-07 04:26 10.13808 72.14248 35872 ft 498 kts 303°
2026-05-07 04:27 10.17662 72.08417 35872 ft 496 kts 303°
2026-05-07 04:27 10.21510 72.02595 35872 ft 495 kts 303°
2026-05-07 04:28 10.25346 71.96790 35872 ft 494 kts 303°
2026-05-07 04:28 10.29151 71.91030 35875 ft 494 kts 303°
2026-05-07 04:29 10.32976 71.85238 35876 ft 493 kts 303°
2026-05-07 04:29 10.36795 71.79450 35873 ft 493 kts 303°
2026-05-07 04:30 10.40616 71.73658 35872 ft 493 kts 303°
2026-05-07 04:30 10.44436 71.67863 35875 ft 493 kts 302°
2026-05-07 04:31 10.48257 71.62064 35891 ft 494 kts 303°
2026-05-07 04:31 10.52055 71.56298 35865 ft 494 kts 303°
2026-05-07 04:32 10.55866 71.50507 35866 ft 492 kts 303°
2026-05-07 04:32 10.59664 71.44736 35867 ft 490 kts 303°
2026-05-07 04:33 10.63446 71.38985 35873 ft 488 kts 303°
2026-05-07 04:33 10.67217 71.33246 35892 ft 487 kts 303°
2026-05-07 04:34 10.70978 71.27520 35889 ft 487 kts 303°
2026-05-07 04:34 10.74738 71.21793 35890 ft 487 kts 303°
2026-05-07 04:35 10.78498 71.16063 35869 ft 487 kts 303°
2026-05-07 04:35 10.82244 71.10351 35885 ft 487 kts 303°
2026-05-07 04:36 10.85996 71.04628 35889 ft 486 kts 303°
2026-05-07 04:36 10.89750 70.98897 35892 ft 486 kts 303°
2026-05-07 04:37 10.93508 70.93158 35872 ft 487 kts 303°
2026-05-07 04:37 10.97260 70.87424 35893 ft 487 kts 303°
2026-05-07 04:38 11.01012 70.81689 35877 ft 486 kts 304°
2026-05-07 04:38 11.04756 70.75961 35893 ft 485 kts 304°
2026-05-07 04:39 11.08464 70.70286 35895 ft 484 kts 304°
2026-05-07 04:39 11.12195 70.64573 35898 ft 484 kts 304°
2026-05-07 04:40 11.15922 70.58862 35881 ft 484 kts 304°
2026-05-07 04:40 11.19646 70.53153 35879 ft 483 kts 304°
2026-05-07 04:41 11.23372 70.47437 35896 ft 484 kts 304°
2026-05-07 04:41 11.27090 70.41732 35891 ft 484 kts 304°
2026-05-07 04:42 11.30798 70.36038 35878 ft 485 kts 304°
2026-05-07 04:42 11.34525 70.30311 35892 ft 485 kts 304°
2026-05-07 04:43 11.38260 70.24569 35896 ft 485 kts 304°
2026-05-07 04:43 11.41992 70.18830 35892 ft 486 kts 304°
2026-05-07 04:44 11.45704 70.13116 35892 ft 486 kts 304°
2026-05-07 04:44 11.49443 70.07358 35898 ft 487 kts 304°
2026-05-07 04:45 11.53185 70.01591 35893 ft 487 kts 304°
2026-05-07 04:45 11.56922 69.95829 35893 ft 487 kts 304°
2026-05-07 04:46 11.60666 69.90054 35897 ft 487 kts 304°
2026-05-07 04:46 11.64373 69.84316 35893 ft 487 kts 303°
2026-05-07 04:47 11.68093 69.78522 35891 ft 488 kts 304°
2026-05-07 04:47 11.71804 69.72735 35897 ft 488 kts 304°
2026-05-07 04:48 11.75520 69.66939 35878 ft 488 kts 304°
2026-05-07 04:48 11.79235 69.61145 35894 ft 487 kts 303°
2026-05-07 04:49 11.82947 69.55352 35893 ft 487 kts 303°
2026-05-07 04:49 11.86626 69.49607 35894 ft 487 kts 303°
2026-05-07 04:50 11.90335 69.43813 35892 ft 487 kts 303°
2026-05-07 04:50 11.94037 69.38024 35893 ft 487 kts 303°
2026-05-07 04:51 11.97744 69.32225 35895 ft 487 kts 303°
2026-05-07 04:51 12.01449 69.26426 35892 ft 487 kts 303°
2026-05-07 04:52 12.05157 69.20618 35884 ft 487 kts 303°
2026-05-07 04:52 12.08838 69.14849 35897 ft 487 kts 303°
2026-05-07 04:53 12.12536 69.09049 35892 ft 487 kts 303°
2026-05-07 04:53 12.16231 69.03251 35896 ft 487 kts 303°
2026-05-07 04:54 12.19932 68.97448 35895 ft 487 kts 303°
2026-05-07 04:54 12.23644 68.91659 35895 ft 487 kts 303°
2026-05-07 04:55 12.27358 68.85869 35891 ft 487 kts 303°
2026-05-07 04:55 12.31075 68.80064 35895 ft 487 kts 303°
2026-05-07 04:56 12.34784 68.74265 35895 ft 487 kts 303°
2026-05-07 04:56 12.38497 68.68457 35896 ft 487 kts 303°
2026-05-07 04:57 12.42205 68.62652 35898 ft 487 kts 303°
2026-05-07 04:57 12.45911 68.56847 35884 ft 487 kts 303°
2026-05-07 04:58 12.49595 68.51073 35902 ft 487 kts 303°
2026-05-07 04:58 12.53298 68.45267 35883 ft 487 kts 303°
2026-05-07 04:59 12.56995 68.39464 35898 ft 487 kts 303°
2026-05-07 04:59 12.60694 68.33656 35882 ft 486 kts 303°
2026-05-07 05:00 12.64386 68.27856 35902 ft 486 kts 303°
2026-05-07 05:00 12.68074 68.22057 35901 ft 486 kts 303°
2026-05-07 05:01 12.71763 68.16252 35885 ft 486 kts 303°
2026-05-07 05:01 12.75454 68.10441 35941 ft 489 kts 303°
2026-05-07 05:02 12.77309 68.07519 36223 ft 489 kts 303°
2026-05-07 05:02 12.79166 68.04593 36604 ft 488 kts 302°
2026-05-07 05:02 12.81014 68.01681 36977 ft 487 kts 303°
2026-05-07 05:02 12.82864 67.98777 37390 ft 484 kts 303°
2026-05-07 05:03 12.84690 67.95921 37699 ft 484 kts 303°
2026-05-07 05:03 12.86541 67.93031 37853 ft 487 kts 303°
2026-05-07 05:03 12.90255 67.87229 37926 ft 485 kts 303°
2026-05-07 05:04 12.93966 67.81423 37925 ft 483 kts 303°
2026-05-07 05:04 12.97639 67.75669 37910 ft 481 kts 303°
2026-05-07 05:05 13.01281 67.69959 37896 ft 481 kts 303°
2026-05-07 05:05 13.04943 67.64214 37912 ft 481 kts 303°
2026-05-07 05:06 13.08603 67.58468 37898 ft 482 kts 303°
2026-05-07 05:06 13.12274 67.52701 37911 ft 483 kts 303°
2026-05-07 05:07 13.15955 67.46915 37909 ft 485 kts 303°
2026-05-07 05:07 13.19646 67.41109 37907 ft 486 kts 303°
2026-05-07 05:08 13.23337 67.35300 37907 ft 486 kts 303°
2026-05-07 05:08 13.26412 67.30457 37902 ft 486 kts 303°
2026-05-07 05:09 13.30093 67.24657 37901 ft 485 kts 303°
2026-05-07 05:09 13.34371 67.17911 37907 ft 484 kts 303°
2026-05-07 05:10 13.37448 67.13055 37905 ft 484 kts 303°
2026-05-07 05:10 13.41119 67.07259 37908 ft 484 kts 303°
2026-05-07 05:11 13.44747 67.01525 37910 ft 483 kts 303°
2026-05-07 05:11 13.48411 66.95733 37910 ft 483 kts 303°
2026-05-07 05:12 13.52070 66.89945 37909 ft 482 kts 303°
2026-05-07 05:12 13.55724 66.84159 37909 ft 482 kts 303°
2026-05-07 05:13 13.59378 66.78370 37913 ft 482 kts 302°
2026-05-07 05:13 13.63033 66.72576 37904 ft 483 kts 302°
2026-05-07 05:14 13.66687 66.66780 37917 ft 483 kts 302°
2026-05-07 05:14 13.70345 66.60972 37916 ft 483 kts 302°
2026-05-07 05:15 13.73981 66.55196 37905 ft 484 kts 302°
2026-05-07 05:15 13.77638 66.49384 37916 ft 484 kts 302°
2026-05-07 05:16 13.81291 66.43572 37909 ft 484 kts 302°
2026-05-07 05:16 13.84944 66.37758 37911 ft 483 kts 302°
2026-05-07 05:17 13.88588 66.31953 37912 ft 483 kts 302°
2026-05-07 05:17 13.92233 66.26143 37915 ft 483 kts 302°
2026-05-07 05:18 13.95871 66.20339 37915 ft 483 kts 302°
2026-05-07 05:18 13.99491 66.14561 37915 ft 483 kts 302°
2026-05-07 05:19 14.03134 66.08742 37921 ft 483 kts 302°
2026-05-07 05:19 14.06769 66.02932 37922 ft 483 kts 302°
2026-05-07 05:20 14.10409 65.97110 37912 ft 483 kts 302°
2026-05-07 05:20 14.14019 65.91330 37918 ft 483 kts 302°
2026-05-07 05:21 14.19478 65.82585 37919 ft 483 kts 302°
2026-05-07 05:22 14.23124 65.76738 37920 ft 484 kts 302°
2026-05-07 05:22 14.26762 65.70900 37917 ft 484 kts 302°
2026-05-07 05:23 14.30375 65.65098 37922 ft 484 kts 302°
2026-05-07 05:23 14.34010 65.59256 37921 ft 484 kts 302°
2026-05-07 05:24 14.37644 65.53413 37927 ft 483 kts 302°
2026-05-07 05:24 14.41275 65.47569 37918 ft 483 kts 302°
2026-05-07 05:25 14.44902 65.41728 37925 ft 483 kts 302°
2026-05-07 05:25 14.48521 65.35894 37924 ft 483 kts 302°
2026-05-07 05:26 14.52145 65.30049 37925 ft 483 kts 302°
2026-05-07 05:26 14.55769 65.24198 37930 ft 483 kts 302°
2026-05-07 05:27 14.59385 65.18361 37922 ft 483 kts 302°
2026-05-07 05:27 14.63013 65.12562 37925 ft 483 kts 302°
2026-05-07 05:28 14.66670 65.06742 37924 ft 483 kts 302°
2026-05-07 05:28 14.70320 65.00922 37932 ft 483 kts 302°
2026-05-07 05:29 14.73965 64.95098 37918 ft 483 kts 302°
2026-05-07 05:29 14.77609 64.89268 37927 ft 483 kts 302°
2026-05-07 05:30 14.81256 64.83430 37921 ft 483 kts 302°
2026-05-07 05:30 14.84898 64.77596 37931 ft 482 kts 302°
2026-05-07 05:31 14.88536 64.71762 37936 ft 482 kts 302°
2026-05-07 05:31 14.92147 64.65970 37922 ft 482 kts 302°
2026-05-07 05:32 14.95776 64.60143 37921 ft 482 kts 302°
2026-05-07 05:32 14.99406 64.54311 37928 ft 481 kts 302°
2026-05-07 05:33 15.03029 64.48485 37931 ft 481 kts 302°
2026-05-07 05:33 15.06647 64.42663 37925 ft 481 kts 302°
2026-05-07 05:34 15.10266 64.36835 37930 ft 481 kts 302°
2026-05-07 05:34 15.13882 64.31007 37932 ft 481 kts 302°
2026-05-07 05:35 15.17503 64.25167 37927 ft 481 kts 302°
2026-05-07 05:35 15.21114 64.19340 37929 ft 481 kts 302°
2026-05-07 05:36 15.24705 64.13539 37928 ft 481 kts 302°
2026-05-07 05:36 15.28315 64.07703 37929 ft 481 kts 302°
2026-05-07 05:37 15.31918 64.01874 37934 ft 481 kts 302°
2026-05-07 05:37 15.35525 63.96036 37928 ft 481 kts 302°
2026-05-07 05:38 15.39126 63.90201 37929 ft 481 kts 302°
2026-05-07 05:38 15.42732 63.84354 37929 ft 481 kts 302°
2026-05-07 05:39 15.46313 63.78544 37928 ft 480 kts 302°
2026-05-07 05:39 15.49908 63.72704 37929 ft 480 kts 302°
2026-05-07 05:40 15.53514 63.66845 37930 ft 480 kts 302°
2026-05-07 05:40 15.57104 63.61006 37929 ft 480 kts 302°
2026-05-07 05:41 15.60695 63.55160 37932 ft 480 kts 302°
2026-05-07 05:41 15.64267 63.49342 37932 ft 481 kts 302°
2026-05-07 05:42 15.67861 63.43482 37931 ft 480 kts 302°
2026-05-07 05:42 15.71449 63.37629 37927 ft 480 kts 302°
2026-05-07 05:43 15.75032 63.31778 37932 ft 480 kts 302°
2026-05-07 05:43 15.78594 63.25957 37930 ft 480 kts 302°
2026-05-07 05:44 15.82174 63.20102 37931 ft 480 kts 302°
2026-05-07 05:44 15.85749 63.14251 37928 ft 479 kts 302°
2026-05-07 05:45 15.89320 63.08403 37930 ft 480 kts 302°
2026-05-07 05:45 15.92897 63.02538 37932 ft 480 kts 302°
2026-05-07 05:46 15.96463 62.96687 37934 ft 480 kts 302°
2026-05-07 05:46 16.00034 62.90823 37934 ft 480 kts 302°
2026-05-07 05:47 16.03608 62.84951 37931 ft 480 kts 302°
2026-05-07 05:47 16.07155 62.79118 37932 ft 480 kts 302°
2026-05-07 05:48 16.10738 62.73220 37934 ft 480 kts 302°
2026-05-07 05:48 16.14283 62.67381 37935 ft 480 kts 302°
2026-05-07 05:49 16.17866 62.61474 37931 ft 480 kts 302°
2026-05-07 05:49 16.21406 62.55633 37933 ft 480 kts 302°
2026-05-07 05:50 16.24961 62.49763 37934 ft 480 kts 302°
2026-05-07 05:50 16.28520 62.43881 37934 ft 480 kts 302°
2026-05-07 05:51 16.32078 62.37997 37934 ft 480 kts 302°
2026-05-07 05:51 16.35631 62.32114 37936 ft 480 kts 301°
2026-05-07 05:52 16.39184 62.26229 37934 ft 480 kts 301°
2026-05-07 05:52 16.42744 62.20325 37929 ft 480 kts 302°
2026-05-07 05:53 16.46296 62.14430 37934 ft 480 kts 302°
2026-05-07 05:53 16.49844 62.08538 37931 ft 480 kts 301°
2026-05-07 05:54 16.53395 62.02636 37935 ft 480 kts 301°
2026-05-07 05:54 16.56921 61.96770 37934 ft 480 kts 301°
2026-05-07 05:55 16.60465 61.90869 37933 ft 480 kts 301°
2026-05-07 05:55 16.64013 61.84955 37935 ft 480 kts 301°
2026-05-07 05:56 16.66960 61.80039 37935 ft 481 kts 301°
2026-05-07 05:56 16.70504 61.74125 37935 ft 481 kts 301°
2026-05-07 05:57 16.74053 61.68200 37935 ft 481 kts 301°
2026-05-07 05:57 16.77592 61.62283 37935 ft 481 kts 301°
2026-05-07 05:58 16.81139 61.56349 37934 ft 481 kts 301°
2026-05-07 05:58 16.84677 61.50422 37934 ft 481 kts 301°
2026-05-07 05:59 16.88199 61.44517 37934 ft 481 kts 301°
2026-05-07 05:59 16.91733 61.38588 37934 ft 481 kts 301°
2026-05-07 06:00 16.95269 61.32649 37933 ft 481 kts 301°
2026-05-07 06:00 16.98800 61.26716 37935 ft 481 kts 301°
2026-05-07 06:01 17.02311 61.20810 37938 ft 480 kts 301°
2026-05-07 06:01 17.05835 61.14877 37935 ft 481 kts 301°
2026-05-07 06:02 17.09361 61.08935 37934 ft 481 kts 301°
2026-05-07 06:02 17.12891 61.02982 37934 ft 481 kts 301°
2026-05-07 06:03 17.16410 60.97042 37935 ft 481 kts 301°
2026-05-07 06:03 17.19932 60.91092 37937 ft 481 kts 301°
2026-05-07 06:04 17.23452 60.85140 37934 ft 481 kts 301°
2026-05-07 06:04 17.26978 60.79173 37934 ft 481 kts 301°
2026-05-07 06:05 17.30472 60.73253 37930 ft 481 kts 301°
2026-05-07 06:05 17.33986 60.67296 37936 ft 481 kts 301°
2026-05-07 06:06 17.37498 60.61337 37934 ft 481 kts 301°
2026-05-07 06:06 17.41009 60.55373 37939 ft 481 kts 301°
2026-05-07 06:07 17.44521 60.49404 37936 ft 481 kts 300°
2026-05-07 06:07 17.48024 60.43443 37926 ft 480 kts 300°
2026-05-07 06:08 17.51531 60.37470 37934 ft 480 kts 300°
2026-05-07 06:08 17.55018 60.31526 37934 ft 480 kts 300°
2026-05-07 06:09 17.58516 60.25559 37932 ft 480 kts 301°
2026-05-07 06:09 17.62019 60.19576 37932 ft 481 kts 301°
2026-05-07 06:10 17.65491 60.13641 37940 ft 481 kts 300°
2026-05-07 06:10 17.68983 60.07666 37935 ft 480 kts 300°
2026-05-07 06:11 17.72437 60.01676 37924 ft 479 kts 297°
2026-05-07 06:11 17.75072 59.95269 37930 ft 477 kts 288°
2026-05-07 06:12 17.77160 59.88663 37932 ft 477 kts 287°
2026-05-07 06:12 17.79243 59.82048 37935 ft 477 kts 288°
2026-05-07 06:13 17.81342 59.75474 37932 ft 478 kts 288°
2026-05-07 06:13 17.83470 59.68857 37934 ft 479 kts 288°
2026-05-07 06:14 17.85599 59.62238 37934 ft 479 kts 288°
2026-05-07 06:14 17.87727 59.55608 37928 ft 478 kts 288°
2026-05-07 06:15 17.89850 59.48981 37928 ft 478 kts 288°
2026-05-07 06:15 17.91967 59.42366 37930 ft 477 kts 287°
2026-05-07 06:16 17.94060 59.35813 37932 ft 476 kts 288°
2026-05-07 06:16 17.96178 59.29178 37931 ft 476 kts 288°
2026-05-07 06:17 17.98269 59.22619 37934 ft 476 kts 287°
2026-05-07 06:17 18.00368 59.16021 37932 ft 477 kts 288°
2026-05-07 06:18 18.02472 59.09402 37930 ft 477 kts 288°
2026-05-07 06:18 18.04575 59.02778 37938 ft 478 kts 287°
2026-05-07 06:19 18.06676 58.96151 37931 ft 478 kts 287°
2026-05-07 06:19 18.08761 58.89567 37930 ft 477 kts 288°
2026-05-07 06:20 18.10854 58.82951 37933 ft 476 kts 287°
2026-05-07 06:20 18.12941 58.76341 37924 ft 476 kts 288°
2026-05-07 06:21 18.15023 58.69739 37927 ft 475 kts 287°
2026-05-07 06:21 18.17101 58.63141 37925 ft 475 kts 287°
2026-05-07 06:22 18.19176 58.56546 37921 ft 475 kts 287°
2026-05-07 06:22 18.22273 58.46682 37925 ft 475 kts 287°
2026-05-07 06:23 18.24347 58.40067 37932 ft 476 kts 287°
2026-05-07 06:23 18.26417 58.33455 37922 ft 476 kts 287°
2026-05-07 06:24 18.28487 58.26838 37926 ft 475 kts 287°
2026-05-07 06:24 18.30549 58.20231 37919 ft 475 kts 287°
2026-05-07 06:25 18.32600 58.13654 37920 ft 475 kts 287°
2026-05-07 06:25 18.34658 58.07045 37925 ft 475 kts 287°
2026-05-07 06:26 18.36715 58.00432 37921 ft 475 kts 287°
2026-05-07 06:26 18.38753 57.93856 37918 ft 475 kts 287°
2026-05-07 06:27 18.40795 57.87228 37925 ft 476 kts 287°
2026-05-07 06:27 18.42837 57.80587 37927 ft 476 kts 287°
2026-05-07 06:28 18.44878 57.73941 37920 ft 477 kts 287°
2026-05-07 06:28 18.46919 57.67292 37922 ft 477 kts 287°
2026-05-07 06:29 18.48957 57.60640 37921 ft 477 kts 287°
2026-05-07 06:29 18.50992 57.53991 37918 ft 477 kts 287°
2026-05-07 06:30 18.53027 57.47332 37918 ft 477 kts 287°
2026-05-07 06:30 18.55058 57.40676 37918 ft 477 kts 287°
2026-05-07 06:31 18.57088 57.34015 37913 ft 477 kts 287°
2026-05-07 06:31 18.59100 57.27402 37916 ft 477 kts 287°
2026-05-07 06:32 18.61122 57.20752 37919 ft 476 kts 286°
2026-05-07 06:32 18.63140 57.14102 37911 ft 476 kts 287°
2026-05-07 06:33 18.65155 57.07453 37915 ft 475 kts 286°
2026-05-07 06:33 18.67161 57.00825 37914 ft 474 kts 285°
2026-05-07 06:34 18.69163 56.94199 37914 ft 474 kts 286°
2026-05-07 06:34 18.71162 56.87574 37918 ft 474 kts 286°
2026-05-07 06:35 18.73160 56.80945 37913 ft 474 kts 286°
2026-05-07 06:35 18.75156 56.74310 37911 ft 475 kts 286°
2026-05-07 06:36 18.77154 56.67663 37920 ft 475 kts 286°
2026-05-07 06:36 18.79138 56.61053 37915 ft 475 kts 286°
2026-05-07 06:37 18.81132 56.54400 37917 ft 475 kts 286°
2026-05-07 06:37 18.83125 56.47738 37915 ft 476 kts 286°
2026-05-07 06:38 18.85116 56.41075 37912 ft 476 kts 285°
2026-05-07 06:38 18.87105 56.34410 37913 ft 476 kts 285°
2026-05-07 06:39 18.89091 56.27746 37909 ft 475 kts 286°
2026-05-07 06:39 18.91072 56.21087 37910 ft 475 kts 285°
2026-05-07 06:40 18.93039 56.14463 37907 ft 475 kts 286°
2026-05-07 06:40 18.95012 56.07813 37912 ft 474 kts 286°
2026-05-07 06:41 18.96984 56.01161 37906 ft 474 kts 286°
2026-05-07 06:41 18.98936 55.94518 37905 ft 474 kts 285°
2026-05-07 06:42 19.00556 55.88982 37908 ft 473 kts 285°
2026-05-07 06:42 19.02815 55.81256 37904 ft 473 kts 285°
2026-05-07 06:43 19.04757 55.74607 37902 ft 473 kts 285°
2026-05-07 06:43 19.06373 55.69073 37903 ft 473 kts 285°
2026-05-07 06:44 19.08316 55.62434 37905 ft 472 kts 285°
2026-05-07 06:44 19.10258 55.55786 37901 ft 472 kts 285°
2026-05-07 06:45 19.12190 55.49161 37909 ft 472 kts 285°
2026-05-07 06:45 19.14122 55.42526 37896 ft 471 kts 285°
2026-05-07 06:46 19.16035 55.35942 37893 ft 471 kts 285°
2026-05-07 06:46 19.17959 55.29314 37896 ft 470 kts 285°
2026-05-07 06:47 19.19877 55.22697 37891 ft 470 kts 285°
2026-05-07 06:47 19.21789 55.16086 37885 ft 470 kts 285°
2026-05-07 06:48 19.23698 55.09480 37892 ft 470 kts 285°
2026-05-07 06:48 19.25596 55.02905 37890 ft 470 kts 285°
2026-05-07 06:49 19.27500 54.96292 37888 ft 470 kts 285°
2026-05-07 06:49 19.29406 54.89667 37884 ft 470 kts 285°
2026-05-07 06:50 19.31309 54.83044 37875 ft 470 kts 285°
2026-05-07 06:50 19.33210 54.76415 37878 ft 470 kts 285°
2026-05-07 06:51 19.35110 54.69783 37873 ft 470 kts 285°
2026-05-07 06:51 19.37004 54.63160 37876 ft 470 kts 285°
2026-05-07 06:52 19.38899 54.56522 37873 ft 470 kts 285°
2026-05-07 06:52 19.40792 54.49883 37874 ft 470 kts 285°
2026-05-07 06:53 19.42667 54.43296 37877 ft 470 kts 285°
2026-05-07 06:53 19.44557 54.36649 37871 ft 470 kts 285°
2026-05-07 06:54 19.46439 54.30016 37877 ft 470 kts 285°
2026-05-07 06:54 19.48319 54.23384 37875 ft 470 kts 285°
2026-05-07 06:55 19.50198 54.16742 37868 ft 470 kts 285°
2026-05-07 06:55 19.52061 54.10149 37874 ft 469 kts 285°
2026-05-07 06:56 19.53930 54.03522 37869 ft 469 kts 285°
2026-05-07 06:56 19.55799 53.96882 37873 ft 469 kts 285°
2026-05-07 06:57 19.57635 53.90247 37869 ft 469 kts 284°
2026-05-07 06:57 19.59469 53.83598 37868 ft 469 kts 284°
2026-05-07 06:58 19.61018 53.76896 37865 ft 467 kts 277°
2026-05-07 06:58 19.61888 53.70072 37863 ft 466 kts 276°
2026-05-07 06:59 19.62724 53.63241 37862 ft 466 kts 276°
2026-05-07 06:59 19.63573 53.56467 37865 ft 466 kts 276°
2026-05-07 07:00 19.64447 53.49611 37867 ft 467 kts 276°
2026-05-07 07:00 19.65315 53.42827 37865 ft 467 kts 276°
2026-05-07 07:01 19.66187 53.35992 37864 ft 467 kts 276°
2026-05-07 07:01 19.67055 53.29163 37854 ft 467 kts 276°
2026-05-07 07:02 19.67919 53.22337 37853 ft 467 kts 276°
2026-05-07 07:02 19.68783 53.15496 37862 ft 467 kts 276°
2026-05-07 07:03 19.69642 53.08668 37854 ft 467 kts 276°
2026-05-07 07:03 19.70493 53.01881 37862 ft 466 kts 276°
2026-05-07 07:04 19.71346 52.95057 37850 ft 466 kts 276°
2026-05-07 07:04 19.72196 52.88236 37857 ft 466 kts 276°
2026-05-07 07:05 19.73043 52.81417 37857 ft 466 kts 276°
2026-05-07 07:05 19.73889 52.74590 37857 ft 466 kts 276°
2026-05-07 07:06 19.74730 52.67778 37853 ft 466 kts 276°
2026-05-07 07:06 19.75570 52.60952 37853 ft 466 kts 276°
2026-05-07 07:07 19.76402 52.54174 37855 ft 466 kts 276°
2026-05-07 07:07 19.77233 52.47376 37848 ft 466 kts 276°
2026-05-07 07:08 19.78065 52.40554 37853 ft 466 kts 276°
2026-05-07 07:08 19.78894 52.33731 37846 ft 465 kts 276°
2026-05-07 07:09 19.79720 52.26911 37846 ft 465 kts 276°
2026-05-07 07:09 19.80543 52.20090 37844 ft 465 kts 276°
2026-05-07 07:10 19.81363 52.13272 37827 ft 465 kts 276°
2026-05-07 07:10 19.82175 52.06504 37837 ft 465 kts 276°
2026-05-07 07:11 19.82990 51.99690 37848 ft 465 kts 276°
2026-05-07 07:11 19.83802 51.92875 37848 ft 465 kts 276°
2026-05-07 07:12 19.84612 51.86058 37841 ft 465 kts 276°
2026-05-07 07:12 19.85419 51.79240 37827 ft 465 kts 276°
2026-05-07 07:13 19.86223 51.72425 37836 ft 465 kts 276°
2026-05-07 07:13 19.87026 51.65597 37836 ft 465 kts 276°
2026-05-07 07:14 19.87825 51.58779 37837 ft 465 kts 276°
2026-05-07 07:14 19.88616 51.52006 37848 ft 465 kts 276°
2026-05-07 07:15 19.89410 51.45184 37837 ft 464 kts 276°
2026-05-07 07:15 19.90201 51.38371 37830 ft 464 kts 276°
2026-05-07 07:16 19.90989 51.31557 37829 ft 464 kts 276°
2026-05-07 07:16 19.91774 51.24740 37842 ft 464 kts 276°
2026-05-07 07:17 19.92552 51.17969 37838 ft 464 kts 276°
2026-05-07 07:17 19.93332 51.11156 37831 ft 464 kts 276°
2026-05-07 07:18 19.94108 51.04347 37827 ft 464 kts 276°
2026-05-07 07:18 19.94882 50.97539 37831 ft 464 kts 276°
2026-05-07 07:19 19.95654 50.90721 37830 ft 464 kts 276°
2026-05-07 07:19 19.96423 50.83913 37829 ft 463 kts 276°
2026-05-07 07:20 19.97188 50.77112 37827 ft 463 kts 276°
2026-05-07 07:20 19.97945 50.70361 37831 ft 463 kts 276°
2026-05-07 07:21 19.98704 50.63567 37823 ft 463 kts 276°
2026-05-07 07:21 19.99460 50.56772 37840 ft 463 kts 276°
2026-05-07 07:22 20.00215 50.49972 37822 ft 463 kts 276°
2026-05-07 07:22 20.00967 50.43170 37826 ft 463 kts 276°
2026-05-07 07:23 20.01716 50.36364 37829 ft 463 kts 276°
2026-05-07 07:23 20.02463 50.29560 37825 ft 463 kts 276°
2026-05-07 07:24 20.03207 50.22753 37823 ft 463 kts 276°
2026-05-07 07:24 20.03950 50.15941 37824 ft 463 kts 276°
2026-05-07 07:25 20.05054 50.05762 37824 ft 464 kts 276°
2026-05-07 07:26 20.05790 49.98949 37826 ft 464 kts 276°
2026-05-07 07:26 20.06524 49.92119 37827 ft 464 kts 276°
2026-05-07 07:27 20.07256 49.85294 37821 ft 464 kts 276°
2026-05-07 07:27 20.07981 49.78511 37819 ft 464 kts 276°
2026-05-07 07:28 20.08707 49.71690 37826 ft 464 kts 276°
2026-05-07 07:28 20.09429 49.64875 37827 ft 464 kts 276°
2026-05-07 07:29 20.10028 49.59206 37824 ft 463 kts 276°
2026-05-07 07:29 20.10861 49.51290 37819 ft 463 kts 276°
2026-05-07 07:30 20.11455 49.45626 37820 ft 462 kts 276°
2026-05-07 07:30 20.12166 49.38827 37824 ft 462 kts 276°
2026-05-07 07:31 20.12873 49.32040 37833 ft 462 kts 276°
2026-05-07 07:31 20.13578 49.25240 37826 ft 461 kts 275°
2026-05-07 07:32 20.14280 49.18448 37827 ft 461 kts 275°
2026-05-07 07:32 20.14979 49.11661 37824 ft 461 kts 275°
2026-05-07 07:33 20.15674 49.04876 37827 ft 461 kts 275°
2026-05-07 07:33 20.16365 48.98117 37840 ft 462 kts 275°
2026-05-07 07:34 20.17056 48.91331 37834 ft 461 kts 275°
2026-05-07 07:34 20.17744 48.84542 37828 ft 461 kts 275°
2026-05-07 07:35 20.18429 48.77757 37828 ft 461 kts 275°
2026-05-07 07:35 20.19114 48.70952 37832 ft 461 kts 275°
2026-05-07 07:36 20.19793 48.64173 37832 ft 461 kts 275°
2026-05-07 07:36 20.20466 48.57428 37838 ft 461 kts 275°
2026-05-07 07:37 20.21141 48.50637 37832 ft 461 kts 275°
2026-05-07 07:37 20.21813 48.43856 37833 ft 461 kts 275°
2026-05-07 07:38 20.22482 48.37068 37836 ft 461 kts 275°
2026-05-07 07:38 20.23148 48.30272 37841 ft 461 kts 275°
2026-05-07 07:39 20.23808 48.23489 37834 ft 460 kts 275°
2026-05-07 07:39 20.24466 48.16703 37833 ft 460 kts 275°
2026-05-07 07:40 20.25119 48.09939 37836 ft 459 kts 275°
2026-05-07 07:40 20.25771 48.03164 37837 ft 459 kts 275°
2026-05-07 07:41 20.26418 47.96413 37843 ft 458 kts 275°
2026-05-07 07:41 20.27059 47.89696 37838 ft 458 kts 275°
2026-05-07 07:42 20.27701 47.82942 37841 ft 458 kts 275°
2026-05-07 07:42 20.28341 47.76188 37848 ft 458 kts 275°
2026-05-07 07:43 20.28977 47.69436 37849 ft 458 kts 275°
2026-05-07 07:43 20.29611 47.62685 37857 ft 457 kts 274°
2026-05-07 07:44 20.30241 47.55947 37854 ft 457 kts 274°
2026-05-07 07:44 20.30869 47.49198 37855 ft 457 kts 274°
2026-05-07 07:45 20.31493 47.42463 37864 ft 456 kts 274°
2026-05-07 07:45 20.32111 47.35775 37868 ft 456 kts 274°
2026-05-07 07:46 20.32730 47.29039 37879 ft 456 kts 274°
2026-05-07 07:46 20.33346 47.22307 37868 ft 456 kts 274°
2026-05-07 07:47 20.33961 47.15567 37876 ft 457 kts 274°
2026-05-07 07:47 20.34572 47.08831 37880 ft 457 kts 274°
2026-05-07 07:48 20.35181 47.02095 37896 ft 456 kts 274°
2026-05-07 07:48 20.35783 46.95406 37890 ft 456 kts 274°
2026-05-07 07:49 20.36386 46.88671 37882 ft 456 kts 274°
2026-05-07 07:49 20.36986 46.81949 37884 ft 456 kts 274°
2026-05-07 07:50 20.37583 46.75226 37890 ft 455 kts 274°
2026-05-07 07:50 20.38175 46.68510 37904 ft 455 kts 273°
2026-05-07 07:51 20.38761 46.61788 37895 ft 455 kts 273°
2026-05-07 07:51 20.39346 46.55066 37905 ft 455 kts 273°
2026-05-07 07:52 20.39928 46.48342 37905 ft 455 kts 273°
2026-05-07 07:52 20.40503 46.41667 37911 ft 455 kts 273°
2026-05-07 07:53 20.41079 46.34963 37909 ft 454 kts 273°
2026-05-07 07:53 20.41652 46.28258 37898 ft 453 kts 273°
2026-05-07 07:54 20.42221 46.21567 37914 ft 452 kts 273°
2026-05-07 07:54 20.42786 46.14886 37904 ft 452 kts 272°
2026-05-07 07:55 20.43348 46.08217 37909 ft 451 kts 272°
2026-05-07 07:55 20.43902 46.01611 37922 ft 451 kts 272°
2026-05-07 07:56 20.44460 45.94934 37924 ft 451 kts 272°
2026-05-07 07:56 20.45014 45.88264 37915 ft 451 kts 272°
2026-05-07 07:57 20.45566 45.81598 37923 ft 451 kts 272°
2026-05-07 07:57 20.46115 45.74930 37930 ft 451 kts 272°
2026-05-07 07:58 20.46660 45.68277 37923 ft 450 kts 272°
2026-05-07 07:58 20.47201 45.61643 37937 ft 449 kts 272°
2026-05-07 07:59 20.47739 45.55016 37932 ft 448 kts 272°
2026-05-07 07:59 20.48274 45.48396 37951 ft 447 kts 272°
2026-05-07 08:00 20.48802 45.41829 37945 ft 447 kts 272°
2026-05-07 08:00 20.49330 45.35229 37966 ft 446 kts 272°
2026-05-07 08:01 20.49856 45.28637 37963 ft 446 kts 272°
2026-05-07 08:01 20.50206 45.22041 37972 ft 443 kts 265°
2026-05-07 08:02 20.49584 45.15531 37959 ft 439 kts 257°
2026-05-07 08:02 20.48323 45.09174 37956 ft 438 kts 256°
2026-05-07 08:03 20.47038 45.02822 37967 ft 437 kts 256°
2026-05-07 08:03 20.45769 44.96479 37960 ft 437 kts 256°
2026-05-07 08:04 20.44518 44.90169 37961 ft 437 kts 256°
2026-05-07 08:04 20.43258 44.83811 37963 ft 438 kts 256°
2026-05-07 08:05 20.41997 44.77454 37963 ft 438 kts 256°
2026-05-07 08:05 20.40731 44.71089 37971 ft 439 kts 256°
2026-05-07 08:06 20.39464 44.64731 37973 ft 439 kts 256°
2026-05-07 08:06 20.38201 44.58407 37986 ft 439 kts 256°
2026-05-07 08:07 20.36927 44.52040 37967 ft 438 kts 256°
2026-05-07 08:07 20.35652 44.45682 37960 ft 438 kts 256°
2026-05-07 08:08 20.34377 44.39334 37988 ft 438 kts 256°
2026-05-07 08:08 20.33099 44.32986 37991 ft 438 kts 256°
2026-05-07 08:09 20.31822 44.26655 37992 ft 438 kts 256°
2026-05-07 08:09 20.30547 44.20347 37990 ft 438 kts 255°
2026-05-07 08:10 20.29263 44.14005 37987 ft 437 kts 255°
2026-05-07 08:10 20.27981 44.07682 38005 ft 437 kts 255°
2026-05-07 08:11 20.26696 44.01362 37988 ft 437 kts 255°
2026-05-07 08:11 20.25410 43.95047 38002 ft 437 kts 255°
2026-05-07 08:12 20.24122 43.88734 38004 ft 437 kts 255°
2026-05-07 08:12 20.22835 43.82438 38012 ft 437 kts 255°
2026-05-07 08:13 20.21541 43.76121 38005 ft 438 kts 255°
2026-05-07 08:13 20.20238 43.69774 38015 ft 438 kts 255°
2026-05-07 08:14 20.18937 43.63442 38022 ft 438 kts 255°
2026-05-07 08:14 20.17632 43.57106 38017 ft 438 kts 255°
2026-05-07 08:15 20.16323 43.50767 38010 ft 439 kts 255°
2026-05-07 08:15 20.15011 43.44421 38028 ft 439 kts 255°
2026-05-07 08:16 20.13916 43.39136 38021 ft 440 kts 255°
2026-05-07 08:16 20.12381 43.31739 38046 ft 440 kts 255°
2026-05-07 08:17 20.11273 43.26409 38040 ft 441 kts 255°
2026-05-07 08:17 20.09953 43.20072 38041 ft 441 kts 255°
2026-05-07 08:18 20.08626 43.13710 38052 ft 440 kts 255°
2026-05-07 08:18 20.07296 43.07348 38050 ft 440 kts 255°
2026-05-07 08:19 20.05967 43.01001 38062 ft 440 kts 255°
2026-05-07 08:19 20.04634 42.94646 38062 ft 440 kts 255°
2026-05-07 08:20 20.03297 42.88295 38068 ft 440 kts 254°
2026-05-07 08:20 20.01958 42.81998 38087 ft 439 kts 254°
2026-05-07 08:21 20.00605 42.75648 38065 ft 440 kts 254°
2026-05-07 08:21 19.99252 42.69298 38077 ft 440 kts 254°
2026-05-07 08:22 19.98378 42.62850 38088 ft 443 kts 264°
2026-05-07 08:22 19.98524 42.56269 38075 ft 448 kts 272°
2026-05-07 08:23 19.99346 42.49738 38073 ft 449 kts 274°
2026-05-07 08:23 20.00228 42.43173 38070 ft 448 kts 274°
2026-05-07 08:24 20.01087 42.36604 38093 ft 448 kts 273°
2026-05-07 08:24 20.01922 42.30034 38097 ft 448 kts 273°
2026-05-07 08:25 20.02747 42.23473 38084 ft 447 kts 273°
2026-05-07 08:25 20.03569 42.16913 38119 ft 447 kts 273°
2026-05-07 08:26 20.04790 42.07142 38113 ft 446 kts 273°
2026-05-07 08:26 20.05604 42.00602 38124 ft 446 kts 273°
2026-05-07 08:27 20.06417 41.94057 38145 ft 446 kts 273°
2026-05-07 08:27 20.07225 41.87523 38150 ft 446 kts 273°
2026-05-07 08:28 20.08032 41.80982 38163 ft 445 kts 273°
2026-05-07 08:28 20.08834 41.74467 38192 ft 444 kts 273°
2026-05-07 08:29 20.09633 41.67936 38189 ft 444 kts 272°
2026-05-07 08:29 20.10433 41.61404 38193 ft 444 kts 273°
2026-05-07 08:30 20.11221 41.54941 38198 ft 443 kts 272°
2026-05-07 08:30 20.12009 41.48451 38192 ft 442 kts 272°
2026-05-07 08:31 20.12795 41.41951 38171 ft 442 kts 272°
2026-05-07 08:31 20.13580 41.35455 38166 ft 442 kts 272°
2026-05-07 08:32 20.14361 41.28966 38130 ft 442 kts 272°
2026-05-07 08:32 20.15138 41.22481 38078 ft 443 kts 272°
2026-05-07 08:33 20.15916 41.15975 38068 ft 443 kts 272°
2026-05-07 08:33 20.16693 41.09462 38074 ft 443 kts 272°
2026-05-07 08:34 20.17458 41.03045 38007 ft 433 kts 272°
2026-05-07 08:34 20.17835 40.99880 37562 ft 429 kts 272°
2026-05-07 08:34 20.18206 40.96745 37130 ft 424 kts 272°
2026-05-07 08:35 20.18572 40.93642 36646 ft 421 kts 272°
2026-05-07 08:35 20.18937 40.90551 36139 ft 418 kts 272°
2026-05-07 08:35 20.19296 40.87503 35680 ft 415 kts 272°
2026-05-07 08:35 20.19650 40.84477 35151 ft 414 kts 272°
2026-05-07 08:36 20.20005 40.81444 34657 ft 412 kts 272°
2026-05-07 08:36 20.20359 40.78424 34149 ft 410 kts 272°
2026-05-07 08:36 20.20712 40.75413 33601 ft 409 kts 272°
2026-05-07 08:36 20.21071 40.72421 33059 ft 407 kts 274°
2026-05-07 08:37 20.21675 40.69470 32556 ft 409 kts 280°
2026-05-07 08:37 20.22547 40.66585 32074 ft 408 kts 284°
2026-05-07 08:37 20.23600 40.63775 31597 ft 409 kts 289°
2026-05-07 08:37 20.24892 40.61076 31127 ft 409 kts 292°
2026-05-07 08:38 20.26238 40.58415 30673 ft 407 kts 292°
2026-05-07 08:38 20.27568 40.55810 30202 ft 404 kts 292°
2026-05-07 08:38 20.28907 40.53179 29673 ft 403 kts 292°
2026-05-07 08:38 20.30234 40.50555 29165 ft 400 kts 292°
2026-05-07 08:39 20.31545 40.47950 28691 ft 396 kts 292°
2026-05-07 08:39 20.32832 40.45380 28222 ft 393 kts 292°
2026-05-07 08:39 20.34117 40.42810 27766 ft 390 kts 292°
2026-05-07 08:39 20.35385 40.40270 27285 ft 387 kts 293°
2026-05-07 08:40 20.36646 40.37742 26849 ft 385 kts 293°
2026-05-07 08:40 20.37894 40.35240 26414 ft 382 kts 293°
2026-05-07 08:40 20.39139 40.32742 25971 ft 380 kts 293°
2026-05-07 08:40 20.40380 40.30253 25526 ft 378 kts 294°
2026-05-07 08:41 20.41615 40.27778 25095 ft 377 kts 294°
2026-05-07 08:41 20.42844 40.25311 24665 ft 376 kts 294°
2026-05-07 08:41 20.44071 40.22849 24231 ft 375 kts 294°
2026-05-07 08:41 20.45280 40.20420 23794 ft 375 kts 294°
2026-05-07 08:42 20.46502 40.17966 23329 ft 375 kts 295°
2026-05-07 08:42 20.47723 40.15512 22838 ft 373 kts 295°
2026-05-07 08:42 20.48937 40.13076 22389 ft 371 kts 295°
2026-05-07 08:42 20.50144 40.10650 21936 ft 368 kts 295°
2026-05-07 08:43 20.51342 40.08242 21506 ft 366 kts 295°
2026-05-07 08:43 20.52533 40.05845 21093 ft 364 kts 295°
2026-05-07 08:43 20.53713 40.03468 20688 ft 362 kts 295°
2026-05-07 08:43 20.54890 40.01096 20250 ft 360 kts 295°
2026-05-07 08:44 20.56062 39.98734 19834 ft 359 kts 295°
2026-05-07 08:44 20.57227 39.96382 19415 ft 358 kts 295°
2026-05-07 08:44 20.58391 39.94034 18988 ft 357 kts 295°
2026-05-07 08:44 20.59531 39.91732 18569 ft 356 kts 295°
2026-05-07 08:45 20.60692 39.89389 18134 ft 357 kts 295°
2026-05-07 08:45 20.61849 39.87049 17665 ft 356 kts 295°
2026-05-07 08:45 20.63004 39.84716 17205 ft 355 kts 295°
2026-05-07 08:45 20.64157 39.82385 16793 ft 354 kts 295°
2026-05-07 08:46 20.65304 39.80066 16377 ft 353 kts 295°
2026-05-07 08:46 20.66445 39.77757 15976 ft 351 kts 295°
2026-05-07 08:46 20.67584 39.75450 15546 ft 350 kts 295°
2026-05-07 08:46 20.68715 39.73159 15134 ft 349 kts 295°
2026-05-07 08:47 20.69852 39.70855 14723 ft 348 kts 295°
2026-05-07 08:47 20.70981 39.68567 14309 ft 347 kts 295°
2026-05-07 08:47 20.72104 39.66291 13955 ft 345 kts 295°
2026-05-07 08:47 20.73220 39.64026 13554 ft 344 kts 296°
2026-05-07 08:48 20.74317 39.61801 13131 ft 343 kts 296°
2026-05-07 08:48 20.75423 39.59555 12712 ft 341 kts 296°
2026-05-07 08:48 20.76527 39.57314 12301 ft 340 kts 295°
2026-05-07 08:48 20.77657 39.55116 11885 ft 334 kts 302°
2026-05-07 08:49 20.79291 39.53364 11493 ft 336 kts 326°
2026-05-07 08:49 20.81432 39.52402 11125 ft 333 kts 344°
2026-05-07 08:49 20.83674 39.51817 10773 ft 332 kts 345°
2026-05-07 08:49 20.85922 39.51237 10391 ft 331 kts 343°
2026-05-07 08:50 20.88145 39.50653 10169 ft 325 kts 345°
2026-05-07 08:50 20.90319 39.50075 10002 ft 317 kts 344°
2026-05-07 08:50 20.92405 39.49513 9864 ft 309 kts 344°
2026-05-07 08:50 20.94489 39.48948 9695 ft 301 kts 344°
2026-05-07 08:51 20.96462 39.48410 9583 ft 292 kts 343°
2026-05-07 08:51 20.98407 39.47881 9429 ft 284 kts 344°
2026-05-07 08:51 21.00306 39.47365 9255 ft 278 kts 343°
2026-05-07 08:51 21.02174 39.46859 9035 ft 274 kts 344°
2026-05-07 08:52 21.04000 39.46367 8887 ft 267 kts 344°
2026-05-07 08:52 21.05824 39.45873 8385 ft 275 kts 344°
2026-05-07 08:52 21.07677 39.45372 8104 ft 273 kts 344°
2026-05-07 08:52 21.09487 39.44882 7987 ft 264 kts 345°
2026-05-07 08:53 21.11284 39.44395 7453 ft 273 kts 345°
2026-05-07 08:53 21.13137 39.43893 7165 ft 272 kts 345°
2026-05-07 08:53 21.14943 39.43405 7038 ft 265 kts 344°
2026-05-07 08:53 21.16763 39.42911 6528 ft 274 kts 345°
2026-05-07 08:54 21.18587 39.42417 6280 ft 272 kts 345°
2026-05-07 08:54 21.20388 39.41929 6145 ft 263 kts 345°
2026-05-07 08:54 21.22132 39.41429 5934 ft 254 kts 338°
2026-05-07 08:54 21.23575 39.40408 5487 ft 247 kts 311°
2026-05-07 08:55 21.24753 39.39089 5157 ft 245 kts 313°
2026-05-07 08:55 21.25967 39.37816 4914 ft 242 kts 314°
2026-05-07 08:55 21.27173 39.36567 4593 ft 244 kts 313°
2026-05-07 08:55 21.28394 39.35300 4287 ft 242 kts 314°
2026-05-07 08:56 21.29597 39.34053 4065 ft 238 kts 315°
2026-05-07 08:56 21.30772 39.32831 3859 ft 234 kts 315°
2026-05-07 08:56 21.32084 39.31794 3460 ft 235 kts 334°
2026-05-07 08:56 21.33533 39.31119 3144 ft 235 kts 340°
2026-05-07 08:57 21.35036 39.30519 3069 ft 234 kts 340°
2026-05-07 08:57 21.36570 39.29921 3090 ft 238 kts 340°
2026-05-07 08:57 21.38097 39.29324 3041 ft 235 kts 340°
2026-05-07 08:57 21.39605 39.28729 3000 ft 228 kts 341°
2026-05-07 08:58 21.41092 39.28142 2998 ft 229 kts 341°
2026-05-07 08:58 21.42603 39.27547 2920 ft 232 kts 340°
2026-05-07 08:58 21.44099 39.26958 2808 ft 227 kts 340°
2026-05-07 08:58 21.45568 39.26379 2673 ft 223 kts 340°
2026-05-07 08:59 21.47017 39.25808 2586 ft 222 kts 341°
2026-05-07 08:59 21.48461 39.25240 2463 ft 220 kts 340°
2026-05-07 08:59 21.49866 39.24685 2369 ft 220 kts 340°
2026-05-07 08:59 21.51263 39.24129 2256 ft 204 kts 341°
2026-05-07 09:00 21.52485 39.23649 2128 ft 180 kts 341°
2026-05-07 09:00 21.53606 39.23208 2045 ft 162 kts 341°
2026-05-07 09:00 21.54641 39.22798 2011 ft 163 kts 340°
2026-05-07 09:00 21.55718 39.22372 2001 ft 167 kts 339°
2026-05-07 09:01 21.56804 39.21939 2007 ft 165 kts 340°
2026-05-07 09:01 21.57897 39.21510 1841 ft 165 kts 340°
2026-05-07 09:01 21.58942 39.21099 1629 ft 154 kts 338°
2026-05-07 09:01 21.59896 39.20722 1410 ft 136 kts 337°
2026-05-07 09:02 21.60458 39.20500 1301 ft 123 kts 336°
2026-05-07 09:02 21.61247 39.20186 1184 ft 124 kts 336°
2026-05-07 09:02 21.62057 39.19866 1009 ft 123 kts 337°
2026-05-07 09:02 21.63123 39.19444 829 ft 128 kts 339°
2026-05-07 09:03 21.63703 39.19231 803 ft 131 kts 339°
2026-05-07 09:03 21.64553 39.18881 572 ft 131 kts 338°
2026-05-07 09:03 21.65418 39.18530 389 ft 130 kts 337°
2026-05-07 09:03 21.66241 39.18213 226 ft 124 kts 339°
2026-05-07 09:04 21.67073 39.17895 59 ft 128 kts 339°
2026-05-07 09:04 21.67854 39.17574 38 ft 105 kts 339°
2026-05-07 09:04 21.68395 39.17359 31 ft 61 kts 340°
2026-05-07 09:04 21.68651 39.17260 31 ft 25 kts 340°
2026-05-07 09:05 21.68803 39.17187 30 ft 21 kts 321°
2026-05-07 09:05 21.68875 39.17097 31 ft 15 kts 306°
2026-05-07 09:05 21.68929 39.17005 31 ft 14 kts 289°
2026-05-07 09:05 21.68877 39.16943 31 ft 13 kts 179°
2026-05-07 09:06 21.68794 39.16972 32 ft 12 kts 160°
2026-05-07 09:06 21.68716 39.17003 32 ft 13 kts 160°
2026-05-07 09:06 21.68631 39.17036 32 ft 14 kts 160°
2026-05-07 09:06 21.68537 39.17073 32 ft 15 kts 160°
2026-05-07 09:07 21.68439 39.17112 33 ft 15 kts 160°
2026-05-07 09:07 21.68340 39.17150 33 ft 15 kts 160°
2026-05-07 09:07 21.68239 39.17189 34 ft 15 kts 160°
2026-05-07 09:07 21.68139 39.17227 34 ft 15 kts 160°
2026-05-07 09:08 21.68038 39.17266 35 ft 15 kts 160°
2026-05-07 09:08 21.67937 39.17302 35 ft 15 kts 172°
2026-05-07 09:08 21.67841 39.17259 36 ft 16 kts 183°
2026-05-07 09:08 21.67733 39.17289 36 ft 16 kts 159°
2026-05-07 09:09 21.67630 39.17333 37 ft 16 kts 159°
2026-05-07 09:09 21.67526 39.17375 37 ft 16 kts 159°
2026-05-07 09:09 21.67420 39.17415 37 ft 16 kts 161°
2026-05-07 09:09 21.67314 39.17455 38 ft 16 kts 160°
2026-05-07 09:10 21.67213 39.17468 38 ft 14 kts 218°
2026-05-07 09:10 21.67151 39.17389 38 ft 14 kts 226°
2026-05-07 09:10 21.67072 39.17327 38 ft 14 kts 214°
2026-05-07 09:10 21.66986 39.17287 39 ft 9 kts 191°
2026-05-07 09:11 21.66919 39.17284 39 ft 10 kts 172°
2026-05-07 09:11 21.66884 39.17340 39 ft 11 kts 88°
2026-05-07 09:11 21.66882 39.17379 39 ft 0 kts 117°
2026-05-07 09:12 21.66877 39.17389 39 ft 4 kts 122°
2026-05-07 09:12 21.66843 39.17408 39 ft 4 kts 159°
2026-05-07 09:12 21.66825 39.17416 39 ft 0 kts 159°